     2.10           OBSERVATION DATA    G (GPS)             RINEX VERSION / TYPE
teqc 2000Jul20 Karen Wendt 20040525 20:58:19UTC             PGM / RUN BY / DATE
Linux 2.0.36|Pentium II|gcc -static|Linux|486/DX+           COMMENT
teqc 2000Jul20 Karen Wendt 20040525 20:58:18UTC             COMMENT
BIT 2 OF LLI FLAGS DATA COLLECTED UNDER A/S CONDITION       COMMENT
earn Eagle_1958_USC&GS_(Reno_net)                           MARKER NAME
GDH USGS                                                    OBSERVER / AGENCY
ZE120033802 ASHTECH UZ-12 ZE00                              REC # / TYPE / VERS
CR14329 ASH700936D_M NONE                                   ANT # / TYPE
 -2424170.0000 -4287759.0000  4040650.0000                  APPROX POSITION XYZ
        0.4124        0.0000        0.0000                  ANTENNA: DELTA H/E/N
     1     1                                                WAVELENGTH FACT L1/2
     5    C1    L1    L2    P1    P2                        # / TYPES OF OBSERV
    30.0000                                                 INTERVAL
                                                            COMMENT
National Earthquake Hazard Reduction Program                COMMENT
Crustal Strain Project                                      COMMENT
345 Middlefield Road, MS/977                                COMMENT
U.S. Geological Survey, Menlo Park, California 94025        COMMENT
Contact: kwendt@usgs.gov (Ph: 650-329-4866)                 COMMENT
Antenna height is vertical to base of antenna               COMMENT
                                                            COMMENT
SNR is mapped to RINEX snr flag value [1-9]                 COMMENT
L1: 1 -> 1; 90 -> 5; 210 -> 9                               COMMENT
L2: 1 -> 1; 150 -> 5; 250 -> 9                              COMMENT
  2004     5    21     0     0    0.0000000     GPS         TIME OF FIRST OBS
                                                            END OF HEADER
 04  5 21  0  0  0.0000000  0  6G20G11G14G25G 1G30
  22668778.271   -15539072.42543 -12061411.68642  22668778.210    22668775.603
  21481577.191   -20597884.10243 -15985128.73142  21481577.497    21481573.570
  22730549.908   -13681411.87843 -10597139.81842  22730550.092    22730546.500
  20642143.152   -25098079.13743 -19540920.03942  20642143.227    20642139.330
  23471317.672    -9374302.63743  -7289531.18342  23471317.823    23471318.098
  24095125.188    -7585677.06343  -5872542.78942  24095125.958    24095124.253
 04  5 21  0  0 30.0000000  0  6G20G11G14G25G 1G30
  22652515.032   -15624535.95943 -12128006.58042  22652514.970    22652512.386
  21485190.014   -20578898.51843 -15970334.78342  21485190.321    21485186.415
  22745244.187   -13604192.95943 -10536969.28742  22745244.393    22745240.822
  20642105.060   -25098279.20144 -19541075.91642  20642105.127    20642101.250
  23456937.867    -9449868.27943  -7348413.36642  23456938.023    23456938.275
  24093293.183    -7595300.40643  -5880041.50342  24093294.500    24093293.008
 04  5 21  0  1  0.0000000  0  6G20G11G14G25G 1G30
  22636273.769   -15709883.89943 -12194511.39742  22636273.741    22636271.153
  21488904.797   -20559377.16243 -15955123.35042  21488905.123    21488901.238
  22759952.768   -13526899.11143 -10476740.35142  22759952.939    22759949.397
  20642167.178   -25097952.74744 -19540821.52142  20642167.256    20642163.366
  23442589.014    -9525271.53343  -7407169.02142  23442589.173    23442589.396
  24091562.136    -7604401.15843  -5887132.99042  24091562.866    24091561.121
 04  5 21  0  1 30.0000000  0  6G20G11G14G25G 1G30
  22620056.500   -15795105.73043 -12260917.94842  22620056.472    22620053.922
  21492723.043   -20539312.19943 -15939488.33342  21492723.350    21492719.468
  22774677.087   -13449522.40543 -10416446.86342  22774677.293    22774673.717
  20642331.085   -25097091.18144 -19540150.15542  20642331.185    20642327.305
  23428272.793    -9600503.31843  -7465791.06742  23428272.907    23428273.147
  24089931.567    -7612969.13443  -5893809.30142  24089932.281    24089930.842
 04  5 21  0  2  0.0000000  0  6G20G11G14G25G 1G30
  22603862.714   -15880204.48243 -12327228.59242  22603862.666    22603860.115
  21496643.709   -20518708.95343 -15923433.86942  21496644.020    21496640.165
  22789416.117   -13372068.35043 -10356093.09542  22789416.305    22789412.764
  20642595.793   -25095700.07544 -19539066.16142  20642595.882    20642592.016
  23413988.400    -9675567.94043  -7524282.83542  23413988.470    23413988.738
  24088401.859    -7621008.10043  -5900073.41742  24088402.529    24088401.171
 04  5 21  0  2 30.0000000  0  6G20G11G14G25G 1G30
  22587692.814   -15965177.65343 -12393441.39242  22587692.786    22587690.201
  21500666.761   -20497567.79043 -15906960.25142  21500667.065    21500663.188
  22804169.792   -13294537.30643 -10295679.34442  22804169.990    22804166.469
  20642961.362   -25093778.94044 -19537569.15942  20642961.461    20642957.588
  23399735.910    -9750464.43143  -7582643.60542  23399736.021    23399736.250
  24086973.139    -7628516.24543  -5905923.87042  24086973.719    24086972.323
 04  5 21  0  3  0.0000000  0  6G20G11G14G25G 1G30
  22571547.560   -16050021.20143 -12459553.18242  22571547.556    22571544.943
  21504792.462   -20475887.12843 -15890066.24242  21504792.755    21504788.898
  22818938.416   -13216927.63443 -10235204.33142  22818938.617    22818935.139
  20643428.086   -25091326.11043 -19535657.84642  20643428.179    20643424.340
  23385515.949    -9825190.31143  -7640871.42242  23385516.086    23385516.294
  24085645.979    -7635490.15443  -5911358.09142  24085646.730    24085645.095
 04  5 21  0  3 30.0000000  0  6G20G11G14G25G 1G30
  22555427.163   -16134734.17043 -12525563.22942  22555427.188    22555424.519
  21509020.517   -20453668.66243 -15872753.16942  21509020.797    21509016.940
  22833721.749   -13139240.85943 -10174669.22342  22833721.921    22833718.487
  20643995.788   -25088342.72544 -19533333.12042  20643995.887    20643992.044
  23371328.368    -9899745.96943  -7698966.59442  23371328.468    23371328.734
  24084420.438    -7641929.42643  -5916375.68442  24084421.343    24084419.756
 04  5 21  0  4  0.0000000  0  6G20G11G14G25G 1G30
  22539332.001   -16219314.71643 -12591470.08942  22539332.012    22539329.293
  21513350.659   -20430913.59143 -15855021.96042  21513350.944    21513347.102
  22848519.498   -13061478.14543 -10114074.94442  22848519.680    22848516.264
  20644664.305   -25084829.55844 -19530595.57042  20644664.388    20644660.573
  23357173.148    -9974131.38143  -7756929.11242  23357173.288    23357173.549
  24083296.525    -7647833.21643  -5920976.05042  24083297.688    24083296.231
 04  5 21  0  4 30.0000000  0  6G20G11G14G25G 1G30
  22523261.755   -16303764.46443 -12657275.02642  22523261.700    22523258.968
  21517782.153   -20407626.00743 -15836875.80242  21517782.447    21517778.593
  22863330.914   -12983643.84043 -10053424.88342  22863331.064    22863327.682
  20645432.898   -25080790.56844 -19527448.28942  20645432.991    20645429.144
  23343049.779   -10048349.68943  -7814761.42042  23343049.977    23343050.105
  24082274.382    -7653203.68043  -5925160.80942  24082275.639    24082274.096
 04  5 21  0  5  0.0000000  0  6G20G11G14G25G 1G30
  22507216.194   -16388084.44443 -12722978.85342  22507216.095    22507213.361
  21522314.193   -20383810.03243 -15818317.91642  21522314.484    21522310.651
  22878155.276   -12905741.36643  -9992721.70742  22878155.407    22878152.053
  20646300.860   -25076229.36744 -19523894.09342  20646300.957    20646297.094
  23328957.697   -10122403.48543  -7872465.52842  23328957.880    23328957.976
  24081353.527    -7658043.20843  -5928931.86542  24081354.664    24081353.210
 04  5 21  0  5 30.0000000  0  6G20G11G14G25G 1G30
  22491197.286   -16472264.03543 -12788573.28742  22491197.179    22491194.450
  21526948.377   -20359457.27643 -15799341.75842  21526948.664    21526944.846
  22892994.136   -12827762.48243  -9931958.97242  22892994.350    22892991.006
  20647269.850   -25071137.27844 -19519926.21642  20647269.958    20647266.078
  23314898.683   -10196283.41643  -7930034.16642  23314898.883    23314898.937
  24080535.594    -7662341.50143  -5932281.14942  24080536.494    24080535.243
 04  5 21  0  6  0.0000000  0  6G20G11G14G25G 1G30
  22475204.128   -16556308.14943 -12854062.15542  22475204.038    22475201.324
  21531683.159   -20334575.81343 -15779953.62542  21531683.437    21531679.657
  22907846.155   -12749714.86943  -9871142.70342  22907846.330    22907843.018
  20648338.463   -25065521.70744 -19515550.43442  20648338.570    20648334.684
  23300871.592   -10269995.93043  -7987472.34642  23300871.768    23300871.803
  24079819.822    -7666104.17543  -5935213.10242  24079820.581    24079819.213
 04  5 21  0  6 30.0000000  0  6G20G11G14G25G 1G30
  22459238.056   -16640209.85543 -12919440.04542  22459238.003    22459235.298
  21536519.387   -20309161.26843 -15760150.09942  21536519.669    21536515.917
  22922712.010   -12671594.24243  -9810269.52342  22922712.227    22922708.937
  20649507.538   -25059378.19744 -19510763.26842  20649507.650    20649503.757
  23286877.317   -10343535.76643  -8044775.98142  23286877.549    23286877.424
  24079206.785    -7669325.37943  -5937723.11342  24079207.577    24079206.205
 04  5 21  0  7  0.0000000  0  6G20G11G14G25G 1G30
  22443298.173   -16723974.33543 -12984711.00942  22443298.100    22443295.393
  21541455.498   -20283221.99743 -15739937.69942  21541455.769    21541452.024
  22937590.373   -12593408.43743  -9749345.57142  22937590.535    22937587.282
  20650775.548   -25052714.68244 -19505570.90342  20650775.654    20650771.771
  23272914.527   -10416909.98643  -8101950.55942  23272914.787    23272914.608
  24078695.832    -7672011.40343  -5939816.09242  24078696.441    24078695.038
 04  5 21  0  7 30.0000000  0  6G20G11G14G25G 1G30
  22427385.715   -16807594.89543 -13049869.84242  22427385.613    22427382.840
  21546492.230   -20256753.86443 -15719313.19942  21546492.497    21546488.756
  22952481.898   -12515153.10543  -9688367.43042  22952482.064    22952478.866
  20652143.338   -25045526.80644 -19499969.94642  20652143.452    20652139.557
  23258984.324   -10490113.24143  -8158991.90942  23258984.584    23258984.310
  24078287.440    -7674156.25443  -5941487.40942  24078288.283    24078286.979
 04  5 21  0  8  0.0000000  0  6G20G11G14G25G 1G30
  22411501.805   -16891065.45743 -13114911.78342  22411501.680    22411498.861
  21551630.084   -20229754.25143 -15698274.55942  21551630.374    21551626.620
  22967387.259   -12436825.23843  -9627332.76842  22967387.394    22967384.207
  20653611.624   -25037811.18544 -19493957.75942  20653611.654    20653607.797
  23245087.432   -10563141.28043  -8215896.73242  23245087.678    23245087.362
  24077983.044    -7675755.20143  -5942733.33842  24077983.966    24077982.758
 04  5 21  0  8 30.0000000  0  6G20G11G14G25G 1G30
  22395644.518   -16974396.05343 -13179844.66542  22395644.382    22395641.519
  21556866.671   -20202235.89843 -15676831.70742  21556866.941    21556863.206
  22982304.000   -12358437.31443  -9566251.33742  22982304.123    22982300.997
  20655177.968   -25029580.01143 -19487543.84342  20655177.972    20655174.128
  23231221.722   -10636005.61043  -8272673.98642  23231221.913    23231221.645
  24077780.793    -7676819.12543  -5943562.35342  24077781.514    24077780.083
 04  5 21  0  9  0.0000000  0  6G20G11G14G25G 1G30
  22379815.939   -17057575.55943 -13244659.80842  22379815.811    22379812.925
  21562203.517   -20174190.66843 -15654978.30042  21562203.785    21562200.047
  22997233.864   -12279980.83743  -9505116.46342  22997233.977    22997230.832
  20656843.967   -25020824.99743 -19480721.74042  20656843.974    20656840.121
  23217388.934   -10708696.68443  -8329316.23942  23217389.134    23217388.877
  24077682.210    -7677337.81343  -5943966.51242  24077682.965    24077681.341
 04  5 21  0  9 30.0000000  0  6G20G11G14G25G 1G30
  22364015.817   -17140605.45643 -13309358.37542  22364015.715    22364012.788
  21567639.812   -20145622.83043 -15632717.66242  21567640.083    21567636.347
  23012175.964   -12201459.87843  -9443931.35542  23012176.068    23012172.927
  20658608.814   -25011550.46143 -19473494.81542  20658608.824    20658604.991
  23203588.625   -10781217.65843  -8385825.95742  23203588.800    23203588.473
  24077686.841    -7677313.93543  -5943947.90342  24077687.558    24077685.659
 04  5 21  0 10  0.0000000  0  6G20G11G14G25G 1G30
  22348244.234   -17223485.54943 -13373940.21342  22348244.147    22348241.172
  21573174.902   -20116535.57443 -15610052.28542  21573175.203    21573171.471
  23027129.835   -12122876.79543  -9382697.82842  23027129.970    23027126.811
  20660472.146   -25001758.52543 -19465864.72742  20660472.160    20660468.312
  23189820.392   -10853569.92643  -8442204.20242  23189820.539    23189820.150
  24077794.289    -7676748.33743  -5943507.16642  24077795.093    24077793.378
 04  5 21  0 10 30.0000000  0  6G20G11G14G25G 1G30
  22332502.414   -17306209.20043 -13438400.15042  22332502.320    22332499.337
  21578809.568   -20086925.24643 -15586979.32242  21578809.866    21578806.148
  23042096.283   -12044227.61443  -9321412.79442  23042096.429    23042093.302
  20662434.635   -24991445.36143 -19457828.48642  20662434.670    20662430.813
  23176085.135   -10925748.59743  -8498447.18242  23176085.289    23176084.782
  24078006.048    -7675635.67143  -5942640.12942  24078006.851    24078005.089
 04  5 21  0 11  0.0000000  0  6G20G11G14G25G 1G30
  22316789.602   -17388780.41843 -13502741.30042  22316789.492    22316786.522
  21584542.432   -20056798.99643 -15563504.34742  21584542.711    21584539.000
  23057074.071   -11965519.09243  -9260081.53342  23057074.197    23057071.041
  20664495.080   -24980617.58343 -19449391.24542  20664495.110    20664491.286
  23162381.792   -10997759.38943  -8554559.34742  23162381.919    23162381.477
  24078320.987    -7673981.09343  -5941350.82242  24078321.638    24078319.909
 04  5 21  0 11 30.0000000  0  6G20G11G14G25G 1G30
  22301107.807   -17471188.50743 -13566955.33942  22301107.721    22301104.714
  21590374.925   -20026149.11843 -15539621.34942  21590375.217    21590371.490
  23072064.783   -11886742.93043  -9198697.55942  23072064.857    23072061.694
  20666654.913   -24969267.50543 -19440547.02042  20666654.935    20666651.127
  23148712.118   -11069593.42843  -8610533.78242  23148712.222    23148711.762
  24078740.842    -7671775.15343  -5939631.87342  24078741.295    24078739.747
 04  5 21  0 12  0.0000000  0  6G20G11G14G25G 1G30
  22285454.956   -17553444.60643 -13631050.94942  22285454.860    22285451.865
  21596304.341   -19994989.80443 -15515341.38742  21596304.648    21596300.919
  23087065.695   -11807912.83743  -9137271.56242  23087065.781    23087062.648
  20668911.593   -24957408.40043 -19431306.15242  20668911.619    20668907.806
  23135073.695   -11141263.20943  -8666380.23542  23135073.818    23135073.305
  24079263.107    -7669030.11843  -5937492.88242  24079263.635    24079262.137
 04  5 21  0 12 30.0000000  0  6G20G11G14G25G 1G30
  22269833.193   -17635537.35343 -13695019.27242  22269833.078    22269830.073
  21602332.280   -19963313.08043 -15490658.25442  21602332.559    21602328.799
  23102078.510   -11729020.30543  -9075796.91742  23102078.591    23102075.495
  20671266.704   -24945032.13144 -19421662.29942  20671266.744    20671262.927
  23121468.365   -11212759.26243  -8722091.31442  23121468.507    23121467.906
  24079889.927    -7665735.79543  -5934925.86742  24079890.529    24079889.230
 04  5 21  0 13  0.0000000  0  6G20G11G14G25G 1G30
  22254242.222   -17717468.09043 -13758861.35142  22254242.120    22254239.141
  21608457.759   -19931123.59043 -15465575.56342  21608458.036    21608454.255
  23117102.440   -11650069.18843  -9014276.61342  23117102.535    23117099.440
  20673719.456   -24932142.81743 -19411618.66942  20673719.486    20673715.664
  23107895.433   -11284084.73043  -8777669.46742  23107895.573    23107895.023
  24080620.891    -7661895.10143  -5931933.11142  24080621.364    24080620.061
 04  5 21  0 13 30.0000000  0  6G20G11G14G25G 1G30
  22238683.282   -17799230.72743 -13822572.44642  22238683.155    22238680.203
  21614681.358   -19898418.42143 -15440091.04542  21614681.641    21614677.856
  23132138.191   -11571056.12543  -8952708.04542  23132138.265    23132135.150
  20676270.432   -24918737.32843 -19401172.82542  20676270.475    20676266.642
  23094355.826   -11355235.28243  -8833111.32542  23094355.971    23094355.430
  24081456.143    -7657503.26643  -5928510.88142  24081457.030    24081455.861
 04  5 21  0 14  0.0000000  0  6G20G11G14G25G 1G30
  22223155.101   -17880831.60843 -13886157.49642  22223154.961    22223152.032
  21621001.226   -19865207.32743 -15414212.29642  21621001.511    21620997.737
  23147184.061   -11491990.09143  -8891098.20542  23147184.110    23147180.973
  20678917.897   -24904824.71743 -19390331.82042  20678917.968    20678914.097
  23080847.937   -11426218.98943  -8888423.17642  23080848.086    23080847.547
  24082395.339    -7652567.85043  -5924665.07642  24082396.077    24082394.870
 04  5 21  0 14 30.0000000  0  6G20G11G14G25G 1G30
  22207658.967   -17962264.01143 -13949611.26342  22207658.856    22207655.896
  21627418.059   -19831486.65943 -15387936.47242  21627418.349    21627414.577
  23162240.803   -11412866.83543  -8829443.76042  23162240.822    23162237.701
  20681662.642   -24890401.07543 -19379092.60442  20681662.692    20681658.828
  23067372.824   -11497030.65443  -8943600.98042  23067372.948    23067372.379
  24083439.124    -7647083.75143  -5920391.75942  24083439.759    24083438.562
 04  5 21  0 15  0.0000000  0  6G20G11G14G25G 1G30
  22192195.880   -18043522.79043 -14012929.74142  22192195.776    22192192.841
  21633932.210   -19797254.70643 -15361262.25342  21633932.485    21633928.738
  23177308.833   -11333683.90743  -8767742.85142  23177308.870    23177305.776
  20684505.027   -24875464.20043 -19367453.47142  20684505.078    20684501.202
  23053931.035   -11567667.06043  -8998642.20542  23053931.138    23053930.578
  24084587.922    -7641047.10143  -5915687.80842  24084588.369    24084587.096
 04  5 21  0 15 30.0000000  0  6G20G11G14G25G 1G30
  22176765.080   -18124612.07743 -14076116.14642  22176764.971    22176762.007
  21640542.257   -19762518.77843 -15334195.31842  21640542.530    21640538.802
  23192386.950   -11254448.00243  -8706000.64242  23192386.934    23192383.927
  20687443.785   -24860020.82344 -19355419.65842  20687443.842    20687439.936
  23040521.462   -11638134.08543  -9053551.44842  23040521.619    23040521.031
  24085840.673    -7634463.46343  -5910557.70242  24085841.317    24085839.974
 04  5 21  0 16  0.0000000  0  6G20G11G14G25G 1G30
  22161367.094   -18205528.82343 -14139168.10642  22161366.973    22161364.049
  21647248.134   -19727279.28943 -15306735.99842  21647248.380    21647244.712
  23207475.123   -11175158.76743  -8644216.89642  23207475.197    23207472.221
  20690478.905   -24844071.10243 -19342991.29142  20690478.974    20690475.046
  23027144.433   -11708430.53543  -9108327.79642  23027144.648    23027143.917
  24087197.995    -7627331.32243  -5905000.21342  24087198.709    24087197.340
 04  5 21  0 16 30.0000000  0  6G20G11G14G25G 1G30
  22146002.644   -18286269.28743 -14202082.70342  22146002.526    22145999.589
  21654049.894   -19691535.86043 -15278884.00242  21654050.123    21654046.489
  23222573.758   -11095814.98143  -8582390.61942  23222573.829    23222570.901
  20693610.558   -24827614.11143 -19330167.64842  20693610.618    20693606.687
  23013800.270   -11778554.35343  -9162969.61342  23013800.448    23013799.658
  24088659.820    -7619648.44643  -5899013.52342  24088660.670    24088659.203
 04  5 21  0 17  0.0000000  0  6G20G11G14G25G 1G30
  22130671.824   -18366833.01143 -14264859.58042  22130671.707    22130668.772
  21660946.997   -19655291.47343 -15250641.64842  21660947.225    21660943.597
  23237682.417   -11016418.60343  -8520523.37942  23237682.513    23237679.554
  20696838.242   -24810652.51643 -19316950.80942  20696838.288    20696834.358
  23000488.631   -11848506.94143  -9217478.00442  23000488.812    23000488.013
  24090226.522    -7611415.89243  -5892598.52442  24090227.254    24090225.711
 04  5 21  0 17 30.0000000  0  6G20G11G14G25G 1G30
  22115375.236   -18447216.92343 -14327496.34442  22115375.120    22115372.175
  21667939.301   -19618546.67843 -15222009.36642  21667939.536    21667935.917
  23252801.169   -10936969.43243  -8458614.99642  23252801.213    23252798.290
  20700161.895   -24793186.38543 -19303340.82842  20700161.937    20700158.038
  22987209.841   -11918287.08143  -9271852.03642  22987210.053    22987209.164
  24091897.906    -7602632.16943  -5885754.05742  24091898.774    24091897.473
 04  5 21  0 18  0.0000000  0  6G20G11G14G25G 1G30
  22100112.668   -18527421.98343 -14389993.73942  22100112.557    22100109.615
  21675026.061   -19581305.60743 -15192990.37742  21675026.277    21675022.681
  23267929.158   -10857471.15443  -8396668.34942  23267929.241    23267926.365
  20703580.867   -24775219.59443 -19289340.72342  20703580.874    20703576.985
  22973963.300   -11987897.64743  -9326093.93342  22973963.500    22973962.674
  24093673.816    -7593300.15243  -5878482.32342  24093674.560    24093673.086
 04  5 21  0 18 30.0000000  0  6G20G11G14G25G 1G30
  22084886.301   -18607436.99043 -14452343.05042  22084886.155    22084883.216
  21682208.646   -19543560.76843 -15163578.84342  21682208.867    21682205.310
  23283068.201   -10777914.92343  -8334676.54342  23283068.247    23283065.400
  20707096.673   -24756743.88943 -19274944.06142  20707096.667    20707092.779
  22960750.914   -12057329.05443  -9380196.22642  22960751.093    22960750.159
  24095555.747    -7583409.91243  -5870775.64842  24095556.628    24095555.132
 04  5 21  0 19  0.0000000  0  6G20G11G14G25G 1G30
  22069694.079   -18687272.48043 -14514552.47442  22069693.926    22069690.990
  21689484.410   -19505326.49743 -15133785.93042  21689484.622    21689481.076
  23298215.743   -10698314.10243  -8272649.98942  23298215.842    23298212.964
  20710706.621   -24737773.35443 -19260161.81842  20710706.619    20710702.735
  22947570.208   -12126593.89943  -9434168.73042  22947570.346    22947569.392
  24097541.805    -7572974.01143  -5862643.74042  24097542.593    24097540.881
 04  5 21  0 19 30.0000000  0  6G20G11G14G25G 1G30
  22054537.575   -18766920.23043 -14576615.60442  22054537.432    22054534.478
  21696854.242   -19466597.76443 -15103607.72442  21696854.470    21696850.948
  23313372.909   -10618663.02443  -8210584.28242  23313372.988    23313370.109
  20714411.767   -24718302.61843 -19244989.81142  20714411.764    20714407.873
  22934422.446   -12195685.53843  -9488006.26942  22934422.538    22934421.602
  24099632.564    -7561985.66343  -5854081.38942  24099633.277    24099631.860
 04  5 21  0 20  0.0000000  0  6G20G11G14G25G 1G30
  22039416.572   -18846381.25743 -14638533.23942  22039416.487    22039413.494
  21704317.269   -19427379.43943 -15073048.01942  21704317.478    21704313.976
  23328538.869   -10538965.50943  -8148482.39442  23328538.962    23328536.132
  20718211.297   -24698335.86343 -19229431.29142  20718211.300    20718207.403
  22921306.993   -12264607.17143  -9541711.33042  22921307.057    22921306.132
  24101828.220    -7550448.05243  -5845091.03242  24101829.059    24101827.467
 04  5 21  0 20 30.0000000  0  6G20G11G14G25G 1G30
  22024332.643   -18925647.58743 -14700299.15842  22024332.543    22024329.565
  21711874.389   -19387666.74843 -15042103.08942  21711874.586    21711871.064
  23343714.756   -10459215.88043  -8086339.88542  23343714.851    23343712.062
  20722106.282   -24677867.59243 -19213481.98042  20722106.284    20722102.398
  22908225.134   -12333352.36043  -9595278.90442  22908225.223    22908224.274
  24104129.503    -7538354.55343  -5835667.53942  24104130.465    24104128.711
 04  5 21  0 21  0.0000000  0  6G20G11G14G25G 1G30
  22009285.274   -19004722.11143 -14761915.62942  22009285.147    22009282.127
  21719524.351   -19347466.07043 -15010777.90942  21719524.544    21719521.033
  23358899.506   -10379419.43343  -8024160.90942  23358899.584    23358896.878
  20726095.443   -24656904.37843 -19197147.00042  20726095.437    20726091.551
  22895175.932   -12401925.81943  -9648712.67042  22895176.002    22895175.062
  24106535.422    -7525709.71943  -5825814.44142  24106536.414    24106534.907
 04  5 21  0 21 30.0000000  0  6G20G11G14G25G 1G30
  21994274.859   -19083602.24143 -14823380.61842  21994274.737    21994271.673
  21727266.909   -19306779.00043 -14979073.72742  21727267.061    21727263.526
  23374093.130   -10299576.57443  -7961945.76442  23374093.116    23374090.494
  20730178.621   -24635447.07043 -19180427.01442  20730178.613    20730174.740
  22882159.502   -12470327.07343  -9702012.24542  22882159.570    22882158.620
  24109046.811    -7512513.12243  -5815531.34442  24109047.575    24109045.901
 04  5 21  0 22  0.0000000  0  6G20G11G14G25G 1G30
  21979301.883   -19162285.65643 -14884692.33042  21979301.747    21979298.668
  21735101.695   -19265606.89043 -14946991.59142  21735101.896    21735098.335
  23389295.386   -10219687.73043  -7899694.79142  23389295.520    23389292.910
  20734355.657   -24613496.45343 -19163322.63342  20734355.656    20734351.809
  22869175.919   -12538555.86843  -9755177.42642  22869175.977    22869175.009
  24111662.988    -7498764.42343  -5804818.08442  24111663.838    24111662.229
 04  5 21  0 22 30.0000000  0  6G20G11G14G25G 1G30
  21964366.232   -19240772.97343 -14945851.23042  21964366.067    21964362.971
  21743028.019   -19223953.78143 -14914534.65442  21743028.210    21743024.694
  23404505.992   -10139755.80243  -7837410.24842  23404506.135    23404503.504
  20738625.849   -24591056.34943 -19145836.82642  20738625.844    20738622.013
  22856224.653   -12606614.61643  -9808210.10842  22856224.678    22856223.712
  24114383.834    -7484465.80143  -5793676.30142  24114384.708    24114383.244
 04  5 21  0 23  0.0000000  0  6G20G11G14G25G 1G30
  21949468.654   -19319059.96543 -15006854.04342  21949468.507    21949465.380
  21751045.951   -19181819.38543 -14881702.68842  21751046.158    21751042.619
  23419725.213   -10059778.99843  -7775090.71142  23419725.277    23419722.616
  20742989.377   -24568125.74743 -19127968.81742  20742989.376    20742985.553
  22843306.210   -12674500.99843  -9861108.47742  22843306.209    22843305.254
  24117209.963    -7469615.35243  -5782104.51242  24117210.618    24117209.077
 04  5 21  0 23 30.0000000  0  6G20G11G14G25G 1G30
  21934610.163   -19397141.86343 -15067697.03842  21934610.005    21934606.822
  21759155.704   -19139202.61643 -14848494.84542  21759155.898    21759152.332
  23434953.309    -9979755.45343  -7712734.77742  23434953.338    23434950.655
  20747446.593   -24544702.82743 -19109717.18742  20747446.580    20747442.776
  22830421.129   -12742211.94743  -9913870.14342  22830421.142    22830420.242
  24120141.495    -7454209.86643  -5770100.25242  24120142.103    24120140.794
 04  5 21  0 24  0.0000000  0  6G20G11G14G25G 1G30
  21919790.373   -19475020.09943 -15128381.34042  21919790.226    21919787.056
  21767356.260   -19096108.63943 -14814915.15042  21767356.443    21767352.857
  23450189.373    -9899689.30443  -7650345.64442  23450189.497    23450186.801
  20751996.537   -24520792.62043 -19091085.84642  20751996.520    20751992.742
  22817568.805   -12809750.97443  -9966497.85142  22817568.845    22817567.849
  24123177.882    -7438252.94143  -5757666.28342  24123178.560    24123177.151
 04  5 21  0 24 30.0000000  0  6G20G11G14G25G 1G30
  21905009.554   -19552693.55743 -15188906.07742  21905009.424    21905006.223
  21775647.128   -19052540.07643 -14780965.65242  21775647.299    21775643.746
  23465433.407    -9819581.80043  -7587924.27942  23465433.494    23465430.873
  20756638.780   -24496397.49143 -19072076.64942  20756638.755    20756634.956
  22804749.048   -12877118.79743 -10018992.15542  22804749.072    22804748.043
  24126319.377    -7421745.39943  -5744803.28642  24126319.935    24126318.631
 04  5 21  0 25  0.0000000  0  6G20G11G14G25G 1G30
  21890268.336   -19630159.04443 -15249268.75942  21890268.173    21890264.993
  21784028.140   -19008497.65843 -14746646.91142  21784028.325    21784024.760
  23480685.445    -9739432.72343  -7525470.53542  23480685.457    23480682.832
  20761373.289   -24471517.53943 -19052689.66742  20761373.262    20761369.456
  22791962.067   -12944314.46943 -10071352.31342  22791962.064    22791961.019
  24129565.602    -7404686.33743  -5731510.50242  24129566.218    24129564.667
 04  5 21  0 25 30.0000000  0  6G20G11G14G25G 1G30
  21875567.374   -19707413.05943 -15309466.65742  21875567.200    21875564.021
  21792499.265   -18963981.57143 -14711959.07942  21792499.485    21792495.930
  23495945.624    -9659240.80943  -7462983.40442  23495945.620    23495942.967
  20766200.123   -24446152.28643 -19032924.52742  20766200.115    20766196.292
  22779208.192   -13011336.29543 -10123577.01242  22779208.173    22779207.100
  24132917.060    -7387074.29143  -5717786.81742  24132917.605    24132916.406
 04  5 21  0 26  0.0000000  0  6G20G11G14G25G 1G30
  21860906.399   -19784456.83443 -15369500.74042  21860906.215    21860903.038
  21801059.490   -18918997.23243 -14676906.37842  21801059.703    21801056.176
  23511213.079    -9579010.21243  -7400466.12742  23511213.132    23511210.427
  20771118.316   -24420306.92643 -19012785.27942  20771118.324    20771114.481
  22766486.769   -13078187.59643 -10175668.83242  22766486.795    22766485.658
  24136373.111    -7368912.54743  -5703634.81442  24136373.636    24136372.547
 04  5 21  0 26 30.0000000  0  6G20G11G14G25G 1G30
  21846286.786   -19861283.14143 -15429365.35942  21846286.617    21846283.453
  21809709.528   -18873541.00543 -14641485.96942  21809709.736    21809706.228
  23526488.871    -9498735.94743  -7337914.83842  23526488.860    23526486.124
  20776128.646   -24393977.47043 -18992268.81542  20776128.646    20776124.798
  22753798.788   -13144862.97643 -10227623.57442  22753798.780    22753797.662
  24139934.648    -7350195.86643  -5689050.37342  24139935.289    24139934.192
 04  5 21  0 27  0.0000000  0  6G20G11G14G25G 1G30
  21831707.920   -19937895.49843 -15489063.26642  21831707.751    21831704.565
  21818447.929   -18827620.42943 -14605703.73342  21818448.115    21818444.655
  23541771.706    -9418424.20143  -7275334.33142  23541771.736    23541768.985
  20781229.787   -24367170.75343 -18971380.45942  20781229.784    20781225.935
  22741143.213   -13211367.82643 -10279445.44242  22741143.250    22741142.108
  24143600.962    -7330930.03443  -5674038.02442  24143601.419    24143600.316
 04  5 21  0 27 30.0000000  0  6G20G11G14G25G 1G30
  21817171.399   -20014285.43043 -15548587.85342  21817171.195    21817168.016
  21827275.528   -18781231.05043 -14569556.19642  21827275.721    21827272.313
  23557062.721    -9338069.31943  -7212720.20642  23557062.837    23557060.056
  20786422.791   -24339881.42443 -18950116.03842  20786422.761    20786418.912
  22728521.357   -13277695.76543 -10331129.46442  22728521.388    22728520.173
  24147372.849    -7311108.83243  -5658592.94842  24147373.316    24147372.337
 04  5 21  0 28  0.0000000  0  6G20G11G14G25G 1G30
  21802676.140   -20090458.24843 -15607943.26342  21802675.991    21802672.772
  21836190.624   -18734382.07843 -14533050.53942  21836190.793    21836187.392
  23572360.581    -9257679.14643  -7150078.60042  23572360.673    23572357.896
  20791705.860   -24312118.73143 -18928482.76842  20791705.808    20791701.976
  22715931.757   -13343854.23143 -10382681.42342  22715931.777    22715930.547
  24151248.970    -7290739.98643  -5642721.10642  24151249.450    24151248.216
 04  5 21  0 28 30.0000000  0  6G20G11G14G25G 1G30
  21788222.931   -20166410.27543 -15667126.62942  21788222.777    21788219.529
  21845193.091   -18687074.12343 -14496187.23242  21845193.234    21845189.807
  23587665.354    -9177252.50243  -7087408.55342  23587665.379    23587662.614
  20797079.012   -24283882.42943 -18906480.45142  20797078.991    20797075.160
  22703374.706   -13409841.45643 -10434099.94642  22703374.759    22703373.455
  24155229.766    -7269821.98343  -5626421.36442  24155230.171    24155228.372
 04  5 21  0 29  0.0000000  0  6G20G11G14G25G 1G30
  21773813.164   -20242133.86843 -15726131.99142  21773813.019    21773809.774
  21854283.605   -18639303.36943 -14458963.29842  21854283.740    21854280.317
  23602977.963    -9096784.38543  -7024706.21242  23602978.101    23602975.293
  20802543.081   -24255168.54443 -18884105.99242  20802543.055    20802539.212
  22690851.411   -13475651.59243 -10485380.48642  22690851.445    22690850.121
  24159315.476    -7248349.28043  -5609689.42842  24159316.233    24159315.000
 04  5 21  0 29 30.0000000  0  6G20G11G14G25G 1G30
  21759445.302   -20317637.50143 -15784965.95842  21759445.134    21759441.846
  21863459.885   -18591081.83543 -14421388.11142  21863460.023    21863456.596
  23618296.385    -9016285.81543  -6961980.11942  23618296.497    23618293.800
  20808095.828   -24225988.71543 -18861368.46142  20808095.787    20808091.939
  22678359.748   -13541295.13543 -10536531.20742  22678359.802    22678358.497
  24163505.487    -7226332.82343  -5592533.74142  24163506.052    24163504.509
 04  5 21  0 30  0.0000000  0  6G20G11G14G25G 1G30
  21745121.438   -20392909.66443 -15843619.55342  21745121.274    21745117.999
  21872723.308   -18542402.21443 -14383455.97542  21872723.483    21872720.059
  23633622.304    -8935748.01043  -6899223.47342  23633622.374    23633619.652
  20813738.755   -24196334.96243 -18838261.63642  20813738.707    20813734.870
  22665901.566   -13606762.93443 -10587544.99742  22665901.589    22665900.237
  24167800.250    -7203763.35243  -5574947.14542  24167800.880    24167799.570
 04  5 21  0 30 30.0000000  0  6G20G11G14G25G 1G30
  21730841.779   -20467949.54743 -15902092.15342  21730841.606    21730838.361
  21882073.284   -18493267.99343 -14345169.60542  21882073.427    21882070.005
  23648955.360    -8855172.59343  -6836437.52542  23648955.425    23648952.642
  20819471.384   -24166209.79643 -18814787.48142  20819471.336    20819467.482
  22653476.628   -13672056.03143 -10638422.65442  22653476.655    22653475.263
  24172200.166    -7180642.44543  -5556930.87442  24172200.798    24172199.618
 04  5 21  0 31  0.0000000  0  6G20G11G14G25G 1G30
  21716606.265   -20542757.43843 -15960383.97942  21716606.089    21716602.844
  21891508.934   -18443683.51443 -14306532.38342  21891509.067    21891505.664
  23664295.032    -8774562.63243  -6773624.64542  23664295.045    23664292.236
  20825292.941   -24135617.29043 -18790949.16242  20825292.894    20825289.040
  22641084.513   -13737176.83743 -10689166.06042  22641084.510    22641083.086
  24176704.145    -7156972.97643  -5538487.12742  24176705.066    24176703.501
 04  5 21  0 31 30.0000000  0  6G20G11G14G25G 1G30
  21702415.678   -20617329.38543 -16018491.95742  21702415.478    21702412.231
  21901030.252   -18393648.94943 -14267544.45342  21901030.357    21901026.961
  23679641.484    -8693916.57443  -6710783.63042  23679641.514    23679638.770
  20831203.504   -24104557.05143 -18766746.38142  20831203.464    20831199.596
  22628725.642   -13802123.15543 -10739773.50742  22628725.591    22628724.092
  24181312.735    -7132753.10243  -5519614.53442  24181313.747    24181312.445
 04  5 21  0 32  0.0000000  0  6G20G11G14G25G 1G30
  21688269.794   -20691666.21743 -16076416.72642  21688269.616    21688266.375
  21910636.275   -18343169.08143 -14228209.53442  21910636.371    21910632.999
  23694994.153    -8613237.94843  -6647917.25342  23694994.120    23694991.459
  20837202.163   -24073033.85443 -18742182.85242  20837202.120    20837198.252
  22616399.286   -13866898.18843 -10790247.47542  22616399.208    22616397.708
  24186025.650    -7107986.35443  -5500315.77742  24186026.706    24186025.185
 04  5 21  0 32 30.0000000  0  6G20G11G14G25G 1G30
  21674168.992   -20765766.25743 -16134156.98242  21674168.809    21674165.559
  21920326.538   -18292246.46043 -14188529.61242  21920326.649    21920323.289
  23710352.827    -8532527.54143  -6585026.10042  23710352.795    23710350.188
  20843288.585   -24041049.55943 -18717260.02842  20843288.518    20843284.667
  22604105.498   -13931502.20443 -10840588.19542  22604105.380    22604103.923
  24190842.724    -7082673.47543  -5480591.48542  24190843.530    24190841.868
 04  5 21  0 33  0.0000000  0  6G20G11G14G25G 1G30
  21660114.148   -20839624.82143 -16191709.07542  21660113.959    21660110.705
  21930101.172   -18240880.63343 -14148504.33642  21930101.286    21930097.917
  23725718.020    -8451783.33243  -6522108.62142  23725717.898    23725715.348
  20849462.921   -24008603.15143 -18691977.11742  20849462.871    20849459.010
  22591844.692   -13995932.69243 -10890793.69042  22591844.596    22591843.153
  24195763.931    -7056812.53043  -5460440.11142  24195764.568    24195762.749
 04  5 21  0 33 30.0000000  0  6G20G11G14G25G 1G30
  21646105.674   -20913239.76543 -16249071.33842  21646105.476    21646102.191
  21939959.799   -18189073.47843 -14108135.16942  21939959.892    21939956.541
  23741089.546    -8371005.59243  -6459165.01842  23741089.410    23741087.012
  20855724.943   -23975696.05943 -18666335.22642  20855724.869    20855721.022
  22579616.941   -14060189.44243 -10940863.81342  22579616.854    22579615.432
  24200789.066    -7030403.68843  -5439861.84142  24200789.776    24200788.450
 04  5 21  0 34  0.0000000  0  6G20G11G14G25G 1G30
  21632143.552   -20986611.12343 -16306243.79042  21632143.350    21632140.034
  21949901.548   -18136829.47443 -14067425.59542  21949901.650    21949898.296
  23756467.002    -8290197.06943  -6396197.42142  23756466.844    23756464.454
  20862073.892   -23942332.07743 -18640337.32042  20862073.818    20862069.977
  22567421.895   -14124274.55143 -10990800.19342  22567421.818    22567420.362
  24205918.404    -7003449.50343  -5418858.60442  24205918.902    24205917.575
 04  5 21  0 34 30.0000000  0  6G20G11G14G25G 1G30
  21618228.857   -21059733.16043 -16363221.97042  21618228.667    21618225.326
  21959926.724   -18084147.09343 -14026374.43842  21959926.827    21959923.478
  23771850.849    -8209354.78143  -6333203.49142  23771850.685    23771848.325
  20868510.230   -23908508.96743 -18613981.65442  20868510.165    20868506.276
  22555260.202   -14188184.46243 -11040600.06042  22555260.127    22555258.680
  24211152.097    -6975947.03343  -5397428.13942  24211152.454    24211151.505
 04  5 21  0 35  0.0000000  0  6G20G11G14G25G 1G30
  21604361.274   -21132607.80843 -16420007.37842  21604361.053    21604357.707
  21970034.150   -18031032.23043 -13984986.27742  21970034.283    21970030.952
  23787240.303    -8128483.07243  -6270186.64342  23787240.119    23787237.729
  20875032.845   -23874232.43743 -18587272.67342  20875032.774    20875028.872
  22543131.106   -14251923.09543 -11090266.45742  22543131.011    22543129.535
  24216488.948    -6947900.62743  -5375573.84742  24216489.610    24216488.418
 04  5 21  0 35 30.0000000  0  6G20G11G14G25G 1G30
  21590541.575   -21205230.68543 -16476596.60142  21590541.356    21590537.997
  21980223.894   -17977484.88943 -13943261.12142  21980224.005    21980220.696
  23802635.709    -8047580.03343  -6207145.40442  23802635.523    23802633.157
  20881641.838   -23839501.93543 -18560209.94742  20881641.771    20881637.861
  22531034.996   -14315488.18943 -11139797.62742  22531034.918    22531033.437
  24221929.729    -6919308.75743  -5353294.48742  24221930.367    24221929.462
 04  5 21  0 36  0.0000000  0  7G20G16G11G14G25G 1G30
  21576769.034   -21277605.62243 -16532992.62442  21576768.837    21576765.487
  24656292.222    -3795669.86153  -2915512.88152  24656292.937    24656296.241
  21990494.332   -17923513.47943 -13901205.52242  21990494.436    21990491.152
  23818035.875    -7966652.23043  -6144084.86742  23818035.622    23818033.313
  20888335.755   -23804325.13143 -18532799.45142  20888335.704    20888331.802
  22518970.843   -14378885.77443 -11189198.28042  22518970.766    22518969.217
  24227473.270    -6890177.94743  -5330595.18742  24227473.803    24227472.851
 04  5 21  0 36 30.0000000  0  7G20G16G11G14G25G 1G30
  21563045.924   -21349720.86643 -16589186.28742  21563045.727    21563042.389
  24638271.016    -3890370.32443  -2989305.11242  24638271.723    24638274.963
  22000846.943   -17869110.14043 -13858813.35542  22000847.069    22000843.808
  23833442.358    -7885690.43843  -6080997.83942  23833442.223    23833439.942
  20895116.204   -23768693.69743 -18505034.70042  20895116.147    20895112.236
  22506940.345   -14442106.14343 -11238460.83742  22506940.304    22506938.724
  24233121.287    -6860498.98643  -5307468.73342  24233121.843    24233120.288
 04  5 21  0 37  0.0000000  0  7G20G16G11G14G25G 1G30
  21549372.199   -21421576.65843 -16645177.77642  21549371.981    21549368.633
  24620243.114    -3985106.55543  -3063125.22542  24620243.723    24620246.737
  22011280.897   -17814279.32443 -13816088.09542  22011281.017    22011277.800
  23848854.897    -7804697.36443  -6017886.42842  23848854.724    23848852.467
  20901982.368   -23732611.76443 -18476918.91142  20901982.297    20901978.410
  22494943.106   -14505151.75043 -11287587.21342  22494943.036    22494941.475
  24238872.359    -6830274.97143  -5283917.58542  24238873.417    24238872.211
 04  5 21  0 37 30.0000000  0  7G20G16G11G14G25G 1G30
  21535747.003   -21493177.37043 -16700970.51142  21535746.797    21535743.440
  24602207.716    -4079882.01143  -3136975.91342  24602208.537    24602211.223
  22021794.561   -17759029.93743 -13773036.67542  22021794.665    22021791.445
  23864271.957    -7723679.96343  -5954756.06442  23864271.913    23864269.639
  20908932.638   -23696087.73543 -18448458.63342  20908932.573    20908928.708
  22482977.956   -14568028.86343 -11336582.30242  22482977.886    22482976.286
  24244726.539    -6799513.06043  -5259947.28442  24244727.461    24244726.024
 04  5 21  0 38  0.0000000  0  7G20G16G11G14G25G 1G30
  21522171.967   -21564514.46243 -16756557.82442  21522171.763    21522168.400
  24584166.621    -4174687.43943  -3210849.95442  24584167.347    24584169.986
  22032388.631   -17703357.87243 -13729655.88842  22032388.726    22032385.523
  23879694.893    -7642632.28243  -5891602.12042  23879694.863    23879692.674
  20915968.063   -23659116.28743 -18419649.71242  20915968.002    20915964.161
  22471046.045   -14630731.24143 -11385441.22342  22471045.998    22471044.372
  24250683.711    -6768207.47643  -5235553.32242  24250684.661    24250683.401
 04  5 21  0 38 30.0000000  0  7G20G16G11G14G25G 1G30
  21508647.202   -21635587.44243 -16811939.33642  21508647.004    21508643.624
  24566119.959    -4269521.64843  -3284746.42042  24566120.581    24566123.159
  22043062.357   -17647267.01643 -13685948.77842  22043062.470    22043059.284
  23895123.122    -7561556.43743  -5828426.21242  23895123.181    23895121.013
  20923087.903   -23621701.28243 -18390495.16342  20923087.823    20923084.003
  22459147.064   -14693260.53143 -11434165.28042  22459147.011    22459145.329
  24256743.698    -6736360.60343  -5210737.60142  24256744.505    24256743.595
 04  5 21  0 39  0.0000000  0  7G20G16G11G14G25G 1G30
  21495173.093   -21706394.26143 -16867113.44942  21495172.893    21495169.502
  24548068.418    -4364382.03543  -3358663.29342  24548068.969    24548071.538
  22053815.346   -17590759.78443 -13641917.21642  22053815.483    22053812.300
  23910556.673    -7480452.97343  -5765228.78242  23910556.719    23910554.567
  20930291.754   -23583844.74743 -18360996.56742  20930291.688    20930287.859
  22447281.035   -14755616.68843 -11482754.42542  22447280.955    22447279.276
  24262906.818    -6703973.40343  -5185500.87042  24262907.609    24262906.718
 04  5 21  0 39 30.0000000  0  7G20G16G11G14G25G 1G30
  21481748.835   -21776939.10243 -16922083.42842  21481748.630    21481745.253
  24530011.172    -4459271.84943  -3432603.09442  24530011.874    24530014.262
  22064646.052   -17533844.34743 -13597567.57542  22064646.183    22064642.993
  23925994.282    -7399328.57643  -5702015.04642  23925994.233    23925992.129
  20937578.137   -23545554.45543 -18331159.97742  20937578.098    20937574.243
  22435446.720   -14817805.99943 -11531213.55642  22435446.657    22435444.983
  24269171.515    -6671052.57343  -5159848.30142  24269172.278    24269171.316
 04  5 21  0 40  0.0000000  0  7G20G16G11G14G25G 1G30
  21468377.138   -21847207.80543 -16976838.22942  21468376.928    21468373.517
  24511951.282    -4554176.19843  -3506554.20342  24511951.845    24511954.099
  22075556.270   -17476511.05443 -13552892.32842  22075556.392    22075553.192
  23941437.908    -7318171.80643  -5638776.09442  23941437.946    23941435.824
  20944949.029   -23506820.05843 -18300977.32842  20944948.983    20944945.153
  22423646.442   -14879816.50743 -11579533.36342  22423646.361    22423644.721
  24275539.665    -6637587.23143  -5133771.44242  24275540.312    24275539.268
 04  5 21  0 40 30.0000000  0  7G20G16G11G14G25G 1G30
  21455057.009   -21917205.44743 -17031381.82142  21455056.801    21455053.385
  24493887.663    -4649099.62443  -3580520.21542  24493888.234    24493890.546
  22086544.049   -17418770.00343 -13507899.35442  22086544.187    22086541.003
  23956886.352    -7236990.16643  -5575517.77742  23956886.450    23956884.227
  20952402.798   -23467650.27243 -18270455.42242  20952402.743    20952398.899
  22411878.788   -14941655.41843 -11627719.45742  22411878.729    22411877.089
  24282010.458    -6603585.15443  -5107276.32842  24282010.861    24282010.056
 04  5 21  0 41  0.0000000  0  7G20G16G11G14G25G 1G30
  21441788.810   -21986930.14543 -17085712.72442  21441788.620    21441785.191
  24475820.973    -4744039.39343  -3654498.97342  24475821.422    24475823.803
  22097609.053   -17360623.35743 -13462590.33142  22097609.159    22097605.963
  23972339.367    -7155784.21043  -5512240.48342  23972339.534    23972337.233
  20959938.989   -23428047.30843 -18239595.96842  20959938.925    20959935.090
  22400143.715   -15003323.07943 -11675772.11442  22400143.688    22400142.071
  24288582.752    -6569047.59243  -5080363.99442  24288583.048    24288582.433
 04  5 21  0 41 30.0000000  0  7G20G16G11G14G25G 1G30
  21428573.095   -22056379.01143 -17139828.69642  21428572.907    21428569.489
  24457751.962    -4838991.41443  -3728487.28042  24457752.399    24457754.745
  22108750.953   -17302072.47643 -13416966.31042  22108751.065    22108747.870
  23987797.060    -7074553.56843  -5448943.97542  23987797.210    23987795.036
  20967557.491   -23388011.99243 -18208399.62142  20967557.389    20967553.544
  22388441.490   -15064818.48443 -11723690.54842  22388441.448    22388439.814
  24295257.242    -6533974.27443  -5053034.21242  24295257.563    24295256.009
 04  5 21  0 42  0.0000000  0  7G20G16G11G14G25G 1G30
  21415410.484   -22125548.97243 -17193727.34142  21415410.272    21415406.879
  24439681.234    -4933952.43743  -3802482.57042  24439681.677    24439684.084
  22119969.414   -17243119.20743 -13371028.74542  22119969.529    22119966.357
  24003259.588    -6993297.89843  -5385627.97042  24003259.648    24003257.615
  20975258.019   -23347545.60243 -18176867.37442  20975257.910    20975254.026
  22376772.128   -15126141.05143 -11771474.30042  22376772.094    22376770.458
  24302034.062    -6498365.57143  -5025287.12142  24302034.340    24302031.593
 04  5 21  0 42 30.0000000  0  7G20G16G11G14G25G 1G30
  21402301.528   -22194436.77343 -17247406.11842  21402301.334    21402297.945
  24421609.657    -5028918.02943  -3876481.43742  24421610.043    24421612.225
  22131264.354   -17183764.29443 -13324778.21342  22131264.430    22131261.277
  24018727.055    -6912016.34443  -5322291.78342  24018727.070    24018725.124
  20983040.498   -23306648.34043 -18144999.37842  20983040.407    20983036.521
  22365135.903   -15187289.47943 -11819122.35942  22365135.875    22365134.213
  24308911.487    -6462221.04743  -4997122.59842  24308912.257    24308910.259
 04  5 21  0 43  0.0000000  0  7G20G16G11G14G25G 1G30
  21389245.843   -22263044.84843 -17300866.92642  21389245.629    21389242.226
  24403536.911    -5123890.16443  -3950485.40742  24403537.192    24403539.365
  22142634.392   -17124014.72443 -13278220.15442  22142634.447    22142631.320
  24034198.541    -6830713.93243  -5258939.34642  24034198.440    24034196.464
  20990903.749   -23265326.58843 -18112800.61242  20990903.673    20990899.798
  22353531.960   -15248268.49443 -11866638.41742  22353531.929    22353530.258
  24315890.650    -6425546.12543  -4968544.81642  24315891.266    24315889.634
 04  5 21  0 43 30.0000000  0  7G20G16G11G14G25G 1G30
  21376244.703   -22331366.26643 -17354104.36542  21376244.463    21376241.051
  24385464.342    -5218861.10643  -4024488.45842  24385464.662    24385466.589
  22154079.887   -17063868.38043 -13231352.92642  22154079.968    22154076.853
  24049674.746    -6749386.12943  -5195567.12842  24049674.627    24049672.672
  20998848.280   -23223577.69243 -18080269.01242  20998848.214    20998844.350
  22341961.207   -15309073.11043 -11914018.57542  22341961.130    22341959.442
  24322971.398    -6388337.16443  -4939550.82142  24322972.193    24322970.159
 04  5 21  0 44  0.0000000  0  7G20G16G11G14G25G 1G30
  21363298.607   -22399398.34943 -17407116.34742  21363298.375    21363294.963
  24367392.670    -5313827.23543  -4098487.76242  24367393.097    24367394.923
  22165600.541   -17003327.07143 -13184177.92842  22165600.613    22165597.502
  24065155.782    -6668033.05943  -5132175.23342  24065155.633    24065153.618
  21006873.912   -23181402.85343 -18047405.50742  21006873.847    21006869.960
  22330423.698   -15369702.87543 -11961262.48242  22330423.616    22330421.917
  24330153.364    -6350594.41343  -4910140.91442  24330154.257    24330152.064
 04  5 21  0 44 30.0000000  0  7G20G16G11G14G25G 1G30
  21350407.091   -22467143.66143 -17459904.87142  21350406.846    21350403.407
  24349321.578    -5408790.48843  -4172484.85742  24349322.011    24349323.752
  22177195.044   -16942397.77243 -13136700.60342  22177195.114    22177192.035
  24080640.711    -6586659.80543  -5068767.61042  24080640.596    24080638.635
  21014979.315   -23138808.61843 -18014215.20142  21014979.266    21014975.410
  22318918.539   -15430162.68343 -12008373.96942  22318918.482    22318916.701
  24337435.673    -6312323.62243  -4880319.56842  24337436.506    24337434.837
 04  5 21  0 45  0.0000000  0  6G20G16G11G14G25G 1
  21337572.384   -22534590.30243 -17512460.66942  21337572.171    21337568.719
  24331253.517    -5503738.01043  -4246469.67642  24331253.924    24331255.600
  22188864.798   -16881073.02243 -13088915.13642  22188864.885    22188861.787
  24096131.293    -6505256.65243  -5005336.66442  24096131.220    24096129.204
  21023166.095   -23095786.83943 -17980691.74742  21023166.045    21023162.171
  22307447.611   -15490442.55143 -12055345.23442  22307447.537    22307445.772
 04  5 21  0 45 30.0000000  0  6G20G16G11G14G25G 1
  21324792.100   -22601751.11943 -17564793.74742  21324791.854    21324788.387
  24313186.112    -5598682.09243  -4320451.82342  24313186.485    24313188.074
  22200606.395   -16819370.62543 -13040835.39842  22200606.501    22200603.398
  24111624.590    -6423839.20543  -4941894.59642  24111624.458    24111622.550
  21031430.983   -23052354.57543 -17946848.43342  21031430.917    21031427.077
  22296008.068   -15550557.67043 -12102188.12642  22296007.960    22296006.154
 04  5 21  0 46  0.0000000  0  6G20G16G11G14G25G 1
  21312068.013   -22668616.42343 -17616896.55842  21312067.789    21312064.329
  24295121.339    -5693612.17743  -4394423.07642  24295121.618    24295123.338
  22212420.862   -16757285.39443 -12992457.34942  22212420.973    22212417.844
  24127121.958    -6342400.33243  -4878435.83642  24127121.909    24127119.936
  21039775.077   -23008506.18043 -17912680.86542  21039774.995    21039771.168
  22284601.280   -15610500.56843 -12148896.81642  22284601.184    22284599.328
 04  5 21  0 46 30.0000000  0  6G20G16G11G14G25G 1
  21299400.899   -22735182.34843 -17668766.08442  21299400.673    21299397.221
  24277060.085    -5788523.48843  -4468379.70142  24277060.429    24277062.156
  22224308.013   -16694818.15843 -12943781.62842  22224308.124    22224304.987
  24142623.623    -6260938.89843  -4814959.49042  24142623.646    24142621.578
  21048198.251   -22964242.05643 -17878189.35042  21048198.184    21048194.365
  22273227.539   -15670269.75343 -12195470.15342  22273227.439    22273225.556
 04  5 21  0 47  0.0000000  0  6G20G16G11G14G25G 1
  21286790.439   -22801450.64543 -17720403.69742  21286790.189    21286786.753
  24259002.264    -5883417.11243  -4542322.55342  24259002.672    24259004.252
  22236266.693   -16631974.99543 -12894812.97842  22236266.798    22236263.709
  24158128.760    -6179458.66743  -4751468.49842  24158128.800    24158126.913
  21056699.557   -22919567.50143 -17843378.01742  21056699.482    21056695.665
  22261886.182   -15729868.79743 -12241910.90842  22261886.086    22261884.167
 04  5 21  0 47 30.0000000  0  6G20G16G11G14G25G 1
  21274237.237   -22867418.09543 -17771806.88742  21274236.970    21274233.557
  24240948.565    -5978288.91843  -4616248.40242  24240948.872    24240950.493
  22248296.695   -16568757.12743 -12845552.35442  22248296.783    22248293.722
  24173637.775    -6097958.94143  -4687962.32342  24173637.801    24173635.892
  21065278.826   -22874483.07443 -17808247.30242  21065278.757    21065274.952
  22250577.344   -15789296.71443 -12288218.31942  22250577.279    22250575.354
 04  5 21  0 48  0.0000000  0  6G20G16G11G14G25G 1
  21261742.770   -22933076.91843 -17822969.58542  21261742.482    21261739.072
  24222900.664    -6073130.18143  -4690150.43242  24222900.996    24222902.582
  22260398.576   -16505161.44043 -12795997.32742  22260398.663    22260395.632
  24189151.351    -6016434.64143  -4624436.98842  24189151.366    24189149.565
  21073936.820   -22828985.05443 -17772794.30842  21073936.767    21073932.922
  22239302.222   -15848547.86543 -12334388.00042  22239302.108    22239300.161
 04  5 21  0 48 30.0000000  0  6G20G16G11G14G25G 1
  21249305.368   -22998435.88343 -17873898.63142  21249305.067    21249301.647
  24204856.981    -6167949.21643  -4764035.13642  24204857.306    24204858.789
  22272569.721   -16441201.67843 -12746158.60242  22272569.824    22272566.813
  24204667.553    -5934897.08143  -4560901.33442  24204667.571    24204665.795
  21082670.980   -22783086.88243 -17737029.50942  21082670.912    21082667.052
  22228058.624   -15907633.30243 -12380428.55042  22228058.530    22228056.525
 04  5 21  0 49  0.0000000  0  6G20G16G11G14G25G 1
  21236927.673   -23063480.96643 -17924583.09442  21236927.367    21236923.959
  24186820.428    -6262730.91643  -4837890.77042  24186820.750    24186822.075
  22284811.954   -16376868.39843 -12696028.82942  22284812.066    22284809.074
  24220188.533    -5853334.59643  -4497346.25842  24220188.431    24220186.650
  21091483.213   -22736778.35043 -17700944.94742  21091483.147    21091479.274
  22216848.785   -15966541.19643 -12426330.74942  22216848.680    22216846.662
 04  5 21  0 49 30.0000000  0  6G20G16G11G14G25G 1
  21224608.504   -23128218.56643 -17975027.95942  21224608.206    21224604.766
  24168789.892    -6357480.90243  -4911721.68342  24168790.188    24168791.620
  22297123.182   -16312172.68243 -12645616.64342  22297123.292    22297120.330
  24235712.447    -5771756.11643  -4433778.71542  24235712.347    24235710.633
  21100371.520   -22690070.03943 -17664548.86942  21100371.429    21100367.553
  22205671.072   -16025280.24743 -12472101.38342  22205670.959    22205668.951
 04  5 21  0 50  0.0000000  0  6G20G16G11G14G25G 1
  21212349.178   -23192641.70543 -18025227.78942  21212348.876    21212345.433
  24150766.893    -6452191.44643  -4985521.85742  24150767.192    24150768.604
  22309503.837   -16247112.19743 -12594920.21642  22309503.912    22309500.958
  24251240.240    -5690157.19543  -4370195.24542  24251240.206    24251238.492
  21109336.476   -22642958.87643 -17627838.87942  21109336.390    21109332.502
  22194526.454   -16083845.46943 -12517736.57042  22194526.322    22194524.272
 04  5 21  0 50 30.0000000  0  6G20G16G11G14G25G 1
  21200149.808   -23256749.74643 -18075182.08842  21200149.512    21200146.056
  24132751.674    -6546861.19743  -5059290.25242  24132751.912    24132753.302
  22321953.137   -16181691.09843 -12543942.78942  22321953.210    22321950.217
  24266771.613    -5608539.69143  -4306597.31342  24266771.479    24266769.894
  21118377.384   -22595448.45943 -17590817.77842  21118377.317    21118373.421
  22183414.588   -16142238.52443 -12563237.60142  22183414.454    22183412.405
 04  5 21  0 51  0.0000000  0  6G20G16G11G14G25G 1
  21188010.377   -23320542.93843 -18124891.04842  21188010.061    21188006.583
  24114744.330    -6641489.50543  -5133026.35942  24114744.634    24114745.962
  22334470.112   -16115914.24243 -12492688.15142  22334470.161    22334467.201
  24282306.113    -5526906.35443  -4242987.03042  24282305.840    24282304.246
  21127493.460   -22547543.19843 -17553489.01542  21127493.386    21127489.473
  22172335.037   -16200461.86043 -12608606.38342  22172334.887    22172332.827
 04  5 21  0 51 30.0000000  0  6G20G16G11G14G25G 1
  21175932.315   -23384013.43743 -18174348.56142  21175932.001    21175928.524
  24096746.541    -6736067.65843  -5206723.38642  24096746.947    24096748.102
  22347055.332   -16049778.61843 -12441153.95542  22347055.387    22347052.444
  24297844.449    -5445251.99143  -4179360.36442  24297844.212    24297842.653
  21136685.376   -22499239.34343 -17515849.65742  21136685.299    21136681.390
  22161288.825   -16258509.87143 -12653838.54942  22161288.673    22161286.611
 04  5 21  0 52  0.0000000  0  6G20G16G11G14G25G 1
  21163914.641   -23447166.62343 -18223558.81342  21163914.331    21163910.841
  24078757.483    -6830599.93643  -5280384.66942  24078757.845    24078758.941
  22359706.967   -15983293.99243 -12389347.80742  22359707.001    22359704.086
  24313385.430    -5363583.84743  -4115722.95642  24313385.271    24313383.660
  21145951.493   -22450545.65743 -17477906.53242  21145951.386    21145947.502
  22150274.636   -16316389.67143 -12698939.64042  22150274.477    22150272.373
 04  5 21  0 52 30.0000000  0  6G20G16G11G14G25G 1
  21151958.845   -23509994.64043 -18272515.69242  21151958.556    21151955.059
  24060778.710    -6925077.95443  -5354003.66542  24060779.010    24060780.091
  22372425.636   -15916457.33143 -12337267.35242  22372425.664    22372422.740
  24328930.056    -5281897.07543  -4052071.03242  24328929.786    24328928.181
  21155292.363   -22401459.16043 -17439657.32042  21155292.255    21155288.360
  22139293.441   -16374096.03843 -12743905.59342  22139293.292    22139291.159
 04  5 21  0 53  0.0000000  0  6G20G16G11G14G25G 1
  21140065.322   -23572495.41843 -18321217.57542  21140065.041    21140061.532
  24042810.857    -7019498.82043  -5427578.13842  24042811.156    24042812.203
  22385210.733   -15849271.54843 -12284914.85642  22385210.766    22385207.825
  24344478.055    -5200191.84743  -3988404.72842  24344477.888    24344476.223
  21164707.533   -22351982.10743 -17401103.78042  21164707.412    21164703.526
  22128345.246   -16431629.04743 -12788736.46342  22128345.090    22128342.927
 04  5 21  0 53 30.0000000  0  6G20G16G11G14G25G 1
  21128233.656   -23634671.29943 -18369666.29842  21128233.344    21128229.847
  24024853.581    -7113864.24343  -5501109.43442  24024853.862    24024854.788
  22398060.848   -15781743.83043 -12232295.90942  22398060.906    22398057.964
  24360028.808    -5118473.08043  -3924727.88642  24360028.542    24360026.943
  21174195.818   -22302120.78343 -17362250.80942  21174195.687    21174191.829
  22117429.174   -16488993.30943 -12833435.84442  22117429.010    22117426.840
 04  5 21  0 54  0.0000000  0  6G20G16G11G14G25G 1
  21116465.143   -23696515.00043 -18417856.17342  21116464.861    21116461.346
  24006908.499    -7208165.58243  -5574590.80342  24006908.757    24006909.594
  22410976.609   -15713871.27043 -12179408.25842  22410976.678    22410973.753
  24375582.887    -5036735.83643  -3861036.61942  24375582.735    24375581.134
  21183757.940   -22251871.49443 -17323095.53442  21183757.802    21183753.946
  22106546.168   -16546183.61043 -12877999.67042  22106546.012    22106543.810
 04  5 21  0 54 30.0000000  0  6G20G16G11G14G25G 1
  21104760.044   -23758025.53043 -18465786.43542  21104759.765    21104756.250
  23988975.923    -7302401.16643  -5648020.93942  23988976.208    23988976.885
  22423957.233   -15645657.85943 -12126255.01342  22423957.298    22423954.376
  24391140.214    -4954981.61343  -3797332.14642  24391140.151    24391138.554
  21193393.203   -22201237.79343 -17283640.71442  21193393.059    21193389.233
  22095696.070   -16603201.07243 -12922428.82142  22095695.937    22095693.709
 04  5 21  0 55  0.0000000  0  6G20G16G11G14G25G 1
  21093118.067   -23819204.48943 -18513458.33042  21093117.782    21093114.257
  23971055.795    -7396571.60143  -5721400.31642  23971056.043    23971056.558
  22437001.551   -15577109.73043 -12072840.94542  22437001.622    22436998.702
  24406700.082    -4873214.27043  -3733617.44242  24406700.003    24406698.352
  21203100.621   -22150225.05443 -17243890.54242  21203100.466    21203096.654
  22084878.132   -16660049.37043 -12966726.15242  22084878.005    22084875.794
 04  5 21  0 55 30.0000000  0  6G20G16G11G14G25G 1
  21081540.541   -23880044.74343 -18560866.30042  21081540.249    21081536.712
  23953149.512    -7490669.07743  -5794722.84442  23953149.696    23953150.183
  22450110.014   -15508224.68643 -12019164.34742  22450110.021    22450107.133
  24422263.430    -4791429.32843  -3669889.02742  24422263.186    24422261.626
  21212880.663   -22098830.61343 -17203842.94342  21212880.518    21212876.711
  22074093.349   -16716723.73243 -13010887.95542  22074093.185    22074090.986
 04  5 21  0 56  0.0000000  0  6G20G16G11G14G25G 1
  21070027.096   -23940548.09343 -18608011.74642  21070026.836    21070023.275
  23935256.943    -7584694.43643  -5867989.18042  23935257.161    23935257.605
  22463281.293   -15439009.23243 -11965230.29142  22463281.319    22463278.442
  24437829.238    -4709630.88943  -3606150.09942  24437828.968    24437827.528
  21222732.172   -22047060.46643 -17163502.58242  21222732.065    21222728.269
  22063340.896   -16773228.09343 -13054917.28642  22063340.719    22063338.520
 04  5 21  0 56 30.0000000  0  6G20G16G11G14G25G 1
  21058578.692   -24000709.77743 -18654890.96842  21058578.442    21058574.862
  23917379.152    -7678642.05443  -5941194.93642  23917379.329    23917379.725
  22476515.381   -15369463.70643 -11911039.03242  22476515.411    22476512.575
  24453397.965    -4627816.77443  -3542398.94442  24453397.724    24453396.369
  21232655.326   -21994914.05443 -17122869.03342  21232655.208    21232651.405
  22052621.226   -16829559.99543 -13098812.23542  22052621.076    22052618.865
 04  5 21  0 57  0.0000000  0  6G20G16G11G14G25G 1
  21047195.618   -24060528.09743 -18701502.63242  21047195.353    21047191.795
  23899516.656    -7772509.40843  -6014338.14742  23899516.859    23899517.248
  22489811.744   -15299590.85943 -11856592.71242  22489811.781    22489808.990
  24468969.663    -4545987.45743  -3478635.94842  24468969.431    24468968.010
  21242649.647   -21942393.65243 -17081944.06042  21242649.522    21242645.705
  22041934.378   -16885719.62043 -13142572.94542  22041934.201    22041931.999
 04  5 21  0 57 30.0000000  0  6G20G16G11G14G25G 1
  21035877.889   -24120003.18343 -18747846.83942  21035877.616    21035874.034
  23881669.627    -7866295.65743  -6087418.16742  23881669.782    23881670.113
  22503169.450   -15229395.88643 -11801895.39042  22503169.469    22503166.712
  24484543.787    -4464145.94243  -3414863.44642  24484543.517    24484542.032
  21252714.307   -21889503.65943 -17040731.09742  21252714.161    21252710.365
  22031279.769   -16941709.56243 -13186201.42642  22031279.599    22031277.456
 04  5 21  0 58  0.0000000  0  6G20G16G11G14G25G 1
  21024626.672   -24179128.67043 -18793918.63542  21024626.392    21024622.822
  23863839.394    -7959993.49643  -6160429.29242  23863839.615    23863839.799
  22516588.634   -15158877.52243 -11746946.06342  22516588.680    22516585.961
  24500120.900    -4382287.88643  -3351078.04842  24500120.723    24500119.272
  21262849.757   -21836241.67743 -16999228.27442  21262849.597    21262845.802
  22020658.258   -16997525.60243 -13229694.41142  22020658.120    22020655.968
 04  5 21  0 58 30.0000000  0  6G20G16G11G14G25G 1
  21013441.631   -24237906.37143 -18839719.42742  21013441.360    21013437.773
  23846025.819    -8053603.94443  -6233372.32042  23846025.944    23846026.187
  22530068.251   -15088041.71143 -11691749.38242  22530068.283    22530065.589
  24515700.426    -4300417.46943  -3287283.02842  24515700.185    24515698.825
  21273054.779   -21782613.93243 -16957440.44142  21273054.626    21273050.841
  22010069.153   -17053171.64043 -13273054.91842  22010068.994    22010066.839
 04  5 21  0 59  0.0000000  0  6G20G16G11G14G25G 1
  21002323.699   -24296331.47843 -18885245.47042  21002323.418    21002319.827
  23828229.912    -8147121.25643  -6306242.76942  23828230.057    23828230.219
  22543608.211   -15016888.80043 -11636305.61842  22543608.259    22543605.622
  24531282.655    -4218532.37943  -3223476.55842  24531282.527    24531281.000
  21283329.528   -21728619.85443 -16915367.14942  21283329.389    21283325.587
  21999512.909   -17108645.06243 -13316280.92942  21999512.716    21999510.539
 04  5 21  0 59 30.0000000  0  6G20G16G11G14G25G 1
  20991272.672   -24354404.74843 -18930497.35942  20991272.403    20991268.825
  23810451.694    -8240545.33743  -6379040.57442  23810451.899    23810452.038
  22557207.537   -14945424.13043 -11580618.92242  22557207.597    22557204.948
  24546867.227    -4136635.76043  -3159661.11142  24546867.027    24546865.537
  21293673.070   -21674264.17543 -16873012.09542  21293672.930    21293669.164
  21988988.914   -17163948.86843 -13359374.76542  21988988.721    21988986.545
 04  5 21  1  0  0.0000000  0  6G20G16G11G14G25G 1
  20980289.962   -24412119.21643 -18975469.65942  20980289.689    20980286.106
  23792692.739    -8333868.21843  -6451759.52142  23792693.022    23792693.129
  22570866.518   -14873645.84643 -11524687.84842  22570866.594    22570863.963
  24562454.735    -4054723.05743  -3095833.17742  24562454.624    24562453.085
  21304085.924   -21619544.28443 -16830373.23542  21304085.788    21304082.024
  21978498.091   -17219078.28643 -13402332.71642  21978497.893    21978495.710
 04  5 21  1  0 30.0000000  0  5G20G11G14G25G 1
  20969374.556   -24469480.04943 -19020166.40142  20969374.267    20969370.698
  22584583.290   -14801564.05643 -11468520.27342  22584583.371    22584580.705
  24578044.032    -3972801.83843  -3031998.58342  24578043.808    24578042.224
  21314566.325   -21564469.33343 -16787457.70442  21314566.174    21314562.444
  21968039.098   -17274040.54643 -13445160.41842  21968038.900    21968036.699
 04  5 21  1  1  0.0000000  0  5G20G11G14G25G 1
  20958528.369   -24526477.18943 -19064579.74642  20958528.055    20958524.480
  22598358.795   -14729173.37043 -11412112.00242  22598358.876    22598356.232
  24593636.313    -3890864.37043  -2968151.31042  24593636.212    24593634.632
  21325115.381   -21509033.61343 -16744261.05742  21325115.236    21325111.527
  21957613.425   -17328827.60043 -13487851.59342  21957613.234    21957611.052
 04  5 21  1  1 30.0000000  0  5G20G11G14G25G 1
  20947750.850   -24583113.45243 -19108711.88742  20947750.527    20947746.954
  22612191.659   -14656481.48043 -11355469.02942  22612191.729    22612189.094
  24609230.593    -3808916.02043  -2904295.57642  24609230.299    24609229.051
  21335731.737   -21453244.37743 -16700788.94642  21335731.571    21335727.890
  21947220.079   -17383444.82743 -13530410.44142  21947219.895    21947217.706
 04  5 21  1  2  0.0000000  0  5G20G11G14G25G 1
  20937042.972   -24639383.69443 -19152558.81942  20937042.650    20937039.077
  22626081.937   -14583487.95943 -11298591.02442  22626082.001    22626079.349
  24624827.719    -3726953.73543  -2840428.98842  24624827.364    24624826.269
  21346415.607   -21397100.26343 -16657040.30642  21346415.461    21346411.796
  21936859.697   -17437888.81543 -13572834.29242  21936859.536    21936857.312
 04  5 21  1  2 30.0000000  0  5G20G11G14G25G 1
  20926404.300   -24695290.18843 -19196122.31042  20926403.981    20926400.417
  22640028.141   -14510200.38743 -11241483.88342  22640028.221    22640025.575
  24640426.405    -3644982.26243  -2776555.22942  24640426.039    24640424.925
  21357165.742   -21340608.01243 -16613020.38742  21357165.607    21357161.927
  21926531.368   -17492164.34743 -13615126.88042  21926531.179    21926528.958
 04  5 21  1  3  0.0000000  0  5G20G11G14G25G 1
  20915835.725   -24750828.39443 -19239398.82042  20915835.399    20915831.852
  22654030.354   -14436618.65943 -11184147.52842  22654030.426    22654027.773
  24656027.390    -3562999.19243  -2712672.43442  24656026.901    24656025.959
  21367982.283   -21283766.82043 -16568728.56542  21367982.135    21367978.462
  21916235.605   -17546268.79143 -13657286.15342  21916235.426    21916233.169
 04  5 21  1  3 30.0000000  0  5G20G11G14G25G 1
  20905338.356   -24805992.41843 -19282383.76142  20905338.022    20905334.476
  22668088.723   -14362741.93743 -11126581.31242  22668088.774    22668086.087
  24671630.987    -3481001.25043  -2648778.03342  24671630.720    24671629.657
  21378865.473   -21226575.23143 -16524163.71042  21378865.356    21378861.685
  21905973.093   -17600198.62243 -13699309.37042  21905972.883    21905970.639
 04  5 21  1  4  0.0000000  0  5G20G11G14G25G 1
  20894912.041   -24860783.14643 -19325077.82242  20894911.702    20894908.139
  22682202.126   -14288575.82443 -11068789.58942  22682202.147    22682199.498
  24687236.909    -3398991.54343  -2584874.46142  24687236.602    24687235.556
  21389814.394   -21169038.30143 -16479329.75442  21389814.278    21389810.608
  21895743.181   -17653956.82443 -13741198.84042  21895743.031    21895740.755
 04  5 21  1  4 30.0000000  0  6G20G16G11G14G25G 1
  20884556.755   -24915200.37443 -19367480.84442  20884556.434    20884552.893
  23633797.690    -1261792.04853   -978720.74952  23633796.742    23633795.751
  22696369.728   -14214125.08243 -11010776.08042  22696369.715    22696367.066
  24702844.803    -3316972.18543  -2520963.39142  24702844.566    24702843.582
  21400828.226   -21111160.23043 -16434229.97742  21400828.129    21400824.459
  21885545.634   -17707545.17243 -13782955.96342  21885545.468    21885543.196
 04  5 21  1  5  0.0000000  0  6G20G16G11G14G25G 1
  20874273.167   -24969240.96043 -19409590.37642  20874272.831    20874269.301
  23616256.486    -1353966.36113                                  23616250.367
  22710591.135   -14139391.39943 -10952542.09842  22710591.099    22710588.476
  24718454.731    -3234942.27843  -2457044.07142  24718454.302    24718453.358
  21411906.832   -21052941.92743 -16388865.08042  21411906.717    21411903.055
  21875380.596   -17760962.69643 -13824579.97342  21875380.395    21875378.153
 04  5 21  1  5 30.0000000  0  5G20G16G11G25G 1
  20864063.720   -25022891.85043 -19451396.25242  20864063.391    20864059.853
  23598743.233
  22724867.901   -14064366.71843 -10894081.37242  22724867.866    22724865.266
  21423051.909   -20994374.31843 -16343228.00242  21423051.771    21423048.088
  21865250.149   -17814198.48243 -13866062.37242  21865249.921    21865247.685
 04  5 21  1  6  0.0000000  0  5G20G16G11G25G 1
  20853925.157   -25076170.26143 -19492911.88542  20853924.824    20853921.296
  23581254.086
  22739195.899   -13989072.81343 -10835410.86342  22739195.846    22739193.266
  21434259.276   -20935479.26443 -16297335.77242  21434259.158    21434255.453
  21855150.587   -17867271.98143 -13907418.31442  21855150.363    21855148.094
 04  5 21  1  6 30.0000000  0  5G20G16G11G25G 1
  20843859.733   -25129064.26943 -19534127.98242  20843859.405    20843855.871
  23563791.527    -1629669.97443   -998387.17452  23563791.978    23563790.914
  22753576.408   -13913502.88543 -10776525.26842  22753576.351    22753573.808
  21445530.497   -20876248.67243 -16251182.08342  21445530.377    21445526.670
  21845083.837   -17920173.22043 -13948640.02842  21845083.578    21845081.286
 04  5 21  1  7  0.0000000  0  5G20G16G11G25G 1
  20833867.408   -25181574.23143 -19575044.81742  20833867.081    20833863.557
  23546355.546    -1721296.43643  -1069784.26742  23546355.709    23546354.741
  22768008.479   -13837661.85743 -10717428.42542  22768008.451    22768005.944
  21456864.682   -20816687.21043 -16204770.57442  21456864.557    21456860.861
  21835049.331   -17972904.68243 -13989729.44742  21835049.100    21835046.771
 04  5 21  1  7 30.0000000  0  5G20G16G11G25G 1
  20823948.978   -25233695.84543 -19615659.05042  20823948.638    20823945.118
  23528946.937    -1812777.76843  -1141068.25842  23528947.224    23528946.295
  22782491.966   -13761550.83343 -10658121.19842  22782491.917    22782489.454
  21468261.860   -20756794.76943 -16158101.15742  21468261.727    21468258.039
  21825047.578   -18025464.11243 -14030684.81542  21825047.355    21825045.028
 04  5 21  1  8  0.0000000  0  5G20G16G11G25G 1
  20814105.214   -25285425.12743 -19655967.56942  20814104.887    20814101.345
  23511567.012    -1904109.14243  -1212235.39742  23511567.303    23511566.393
  22797026.697   -13685170.47743 -10598604.09442  22797026.702    22797024.186
  21479721.985   -20696571.53243 -16111173.97842  21479721.837    21479718.174
  21815078.918   -18077849.69143 -14071504.71642  21815078.696    21815076.372
 04  5 21  1  8 30.0000000  0  5G20G16G11G25G 1
  20804335.899   -25336763.18743 -19695971.23642  20804335.560    20804332.015
  23494215.685    -1995290.37843  -1283285.55542  23494215.972    23494215.131
  22811611.571   -13608526.76243 -10538881.78242  22811611.545    22811609.086
  21491244.017   -20636022.89743 -16063993.24442  21491243.861    21491240.218
  21805142.742   -18130064.40743 -14112191.47542  21805142.526    21805140.205
 04  5 21  1  9  0.0000000  0  5G20G16G11G25G 1
  20794641.141   -25387709.48743 -19735669.63842  20794640.794    20794637.233
  23476893.226    -2086320.08043  -1354217.64742  23476893.429    23476892.641
  22826245.731   -13531623.84243 -10478957.50042  22826245.742    22826243.258
  21502827.321   -20575152.22443 -16016561.57242  21502827.199    21502823.522
  21795238.780   -18182109.86043 -14152746.34242  21795238.569    21795236.255
 04  5 21  1  9 30.0000000  0  5G20G16G11G25G 1
  20785021.807   -25438259.34643 -19775059.12542  20785021.478    20785017.891
  23459600.689    -2177192.71543  -1425027.35042  23459600.816    23459600.031
  22840929.137   -13454462.20643 -10418831.61242  22840929.144    22840926.651
  21514471.981   -20513959.26343 -15968878.76542  21514471.840    21514468.187
  21785367.476   -18233983.71543 -14193167.50142  21785367.279    21785364.952
 04  5 21  1 10  0.0000000  0  5G20G16G11G25G 1
  20775478.400   -25488410.25943 -19814137.74542  20775478.065    20775474.467
  23442338.624    -2267904.70443  -1495711.86142  23442338.769    23442337.961
  22855661.361   -13377044.14243 -10358505.91442  22855661.351    22855658.863
  21526177.627   -20452445.72043 -15920946.15042  21526177.491    21526173.829
  21775528.907   -18285685.57343 -14233454.62842  21775528.708    21775526.408
 04  5 21  1 10 30.0000000  0  5G20G16G11G25G 1
  20766011.015   -25538161.72043 -19852905.10642  20766010.667    20766007.047
  23425107.402    -2358454.42043  -1566269.91842  23425107.571    23425106.855
  22870441.505   -13299374.18343 -10297983.93242  22870441.500    22870439.031
  21537943.636   -20390615.02643 -15872766.40942  21537943.488    21537939.838
  21765722.862   -18337216.73443 -14273608.75042  21765722.629    21765720.314
 04  5 21  1 11  0.0000000  0  5G20G16G11G25G 1
  20756619.743   -25587513.17543 -19891360.77142  20756619.373    20756615.743
  23407907.430    -2448840.36343  -1636700.37242  23407907.585    23407906.830
  22885268.836   -13221456.36643 -10237268.82542  22885268.800    22885266.316
  21549769.344   -20328470.78443 -15824342.34042  21549769.174    21549765.523
  21755948.990   -18388578.79743 -14313631.10842  21755948.740    21755946.410
 04  5 21  1 11 30.0000000  0  5G20G16G11G25G 1
  20747306.409   -25636455.08543 -19929497.31142  20747306.050    20747302.381
  23390740.673    -2539051.87043  -1706994.89442  23390740.763    23390740.057
  22900144.140   -13143286.24543 -10176357.10742  22900144.176    22900141.640
  21561655.731   -20266007.55043 -15775669.71342  21561655.559    21561651.891
  21746208.681   -18439764.39143 -14353515.96042  21746208.432    21746206.086
 04  5 21  1 12  0.0000000  0  5G20G16G11G25G 1
  20738069.897   -25684993.28843 -19967319.27242  20738069.522    20738065.852
  23373606.145    -2629093.83443  -1777157.31942  23373606.187    23373605.484
  22915065.494   -13064874.32443 -10115256.98242  22915065.525    22915063.006
  21573600.834   -20203235.58643 -15726756.50942  21573600.657    21573597.023
  21736500.433   -18490781.50443 -14393269.53142  21736500.179    21736497.835
 04  5 21  1 12 30.0000000  0  5G20G16G11G25G 1
  20728911.090   -25733123.09043 -20004823.00342  20728910.724    20728907.051
  23356504.918    -2718960.49543  -1847183.13242  23356505.023    23356504.301
  22930032.850   -12986220.70343 -10053968.51342  22930032.907    22930030.372
  21585604.760   -20140154.49643 -15677602.43242  21585604.605    21585600.956
  21726824.808   -18541627.05043 -14432889.41042  21726824.560    21726822.217
 04  5 21  1 13  0.0000000  0  5G20G16G11G25G 1
  20719830.292   -25780842.83843 -20042007.20942  20719829.939    20719826.276
  23339437.688    -2808648.90943  -1917070.05142  23339437.818    23339437.033
  22945045.494   -12907328.91843  -9992494.46042  22945045.549    22945043.076
  21597667.095   -20076766.44643 -15628209.16842  21597666.951    21597663.300
  21717181.788   -18592301.59143 -14472376.04142  21717181.490    21717179.141
 04  5 21  1 13 30.0000000  0  5G20G16G11G25G 1
  20710828.743   -25828146.28943 -20078867.02942  20710828.378    20710824.738
  23322405.707    -2898151.90243  -1986812.48842  23322405.796    23322405.008
  22960103.848   -12828197.27943  -9930833.51542  22960103.834    22960101.383
  21609788.225   -20013069.49443 -15578575.19642  21609788.105    21609784.452
  21707572.025   -18642800.96043 -14511726.17142  21707571.753    21707569.393
 04  5 21  1 14  0.0000000  0  5G20G16G11G25G 1
  20701905.049   -25875040.68443 -20115408.10442  20701904.684    20701901.033
  23305407.795    -2987475.78943  -2056415.36742  23305407.886    23305407.056
  22975205.448   -12748838.04943  -9868995.22742  22975205.447    22975203.047
  21621966.016   -19949074.84243 -15528709.25342  21621965.888    21621962.247
  21697993.843   -18693134.43843 -14550947.03742  21697993.564    21697991.233
 04  5 21  1 14 30.0000000  0  5G20G16G11G25G 1
  20693061.377   -25921514.34843 -20151621.33742  20693061.041    20693057.376
  23288446.423    -3076607.53143  -2125868.52542  23288446.522    23288445.679
  22990351.643   -12669244.55243  -9806974.38642  22990351.646    22990349.273
  21634201.877   -19884775.05343 -15478605.53542  21634201.752    21634198.101
  21688449.093   -18743292.22443 -14590030.99742  21688448.815    21688446.464
 04  5 21  1 15  0.0000000  0  5G20G16G11G25G 1
  20684297.223   -25967570.24843 -20187509.04142  20684296.870    20684293.229
  23271521.260    -3165549.11343  -2195173.50342  23271521.346    23271520.531
  23005540.985   -12589424.22843  -9744776.80442  23005541.013    23005538.661
  21646494.472   -19820177.18043 -15428269.54742  21646494.338    21646490.678
  21678936.863   -18793279.20843 -14628981.86942  21678936.593    21678934.205
 04  5 21  1 15 30.0000000  0  5G20G16G11G25G 1
  20675612.471   -26013208.90743 -20223071.62442  20675612.111    20675608.490
  23254632.355    -3254300.27543  -2264330.10442  23254632.366    23254631.572
  23020772.393   -12509382.82543  -9682406.94742  23020772.440    23020770.114
  21658842.890   -19755285.87143 -15377704.90842  21658842.732    21658839.102
  21669456.659   -18843098.11043 -14667801.76542  21669456.364    21669453.939
 04  5 21  1 16  0.0000000  0  5G20G16G11G25G 1
  20667008.763   -26058421.67843 -20258302.34842  20667008.408    20667004.771
  23237781.619    -3342850.79443  -2333330.36942  23237781.674    23237780.827
  23036046.646   -12429116.20143  -9619861.60342  23036046.708    23036044.404
  21671248.050   -19690096.37743 -15326907.91642  21671247.882    21671244.257
  21660009.676   -18892742.08443 -14706485.35142  21660009.431    21660006.982
 04  5 21  1 16 30.0000000  0  5G20G16G11G25G 1
  20658485.806   -26103210.03543 -20293202.36042  20658485.453    20658481.831
  23220969.056    -3431201.32443  -2402174.81242  23220969.063    23220968.178
  23051362.521   -12348630.82043  -9557145.79242  23051362.606    23051360.334
  21683708.795   -19624614.68843 -15275883.24142  21683708.633    21683705.042
  21650595.331   -18942214.55343 -14745035.29242  21650595.100    21650592.647
 04  5 21  1 17  0.0000000  0  5G20G16G11G25G 1
  20650044.206   -26147570.91543 -20327769.27442  20650043.826    20650040.220
  23204195.248    -3519347.93843  -2470860.35042  23204195.220    23204194.282
  23066719.702   -12267928.49143  -9494260.93042  23066719.768    23066717.552
  21696224.912   -19558842.09243 -15224631.88742  21696224.753    21696221.155
  21641213.779   -18991514.70643 -14783450.96142  21641213.552    21641211.124
 04  5 21  1 17 30.0000000  0  5G20G16G11G25G 1
  20641684.165   -26191503.25843 -20362002.25942  20641683.754    20641680.174
  23187460.697    -3607287.90643  -2539384.86042  23187460.682    23187459.705
  23082117.516   -12187012.74743  -9431209.78342  23082117.534    23082115.382
  21708795.927   -19492781.14743 -15173155.84442  21708795.733    21708792.149
  21631864.905   -19040643.15943 -14821732.84142  21631864.696    21631862.261
 04  5 21  1 18  0.0000000  0  5G20G16G11G25G 1
  20633405.740   -26235006.56143 -20395900.93042  20633405.336    20633401.772
  23170765.748    -3695020.04143  -2607747.44342  23170765.734    23170764.687
  23097554.959   -12105888.50643  -9367996.14942  23097555.010    23097552.895
  21721421.132   -19426435.35743 -15121457.84042  21721420.941    21721417.327
  21622548.377   -19089601.65343 -14859882.28142  21622548.172    21622545.757
 04  5 21  1 18 30.0000000  0  5G20G16G11G25G 1
  20625210.247   -26278074.20243 -20429460.12342  20625209.841    20625206.258
  23154111.836    -3782536.46243  -2675941.92642  23154111.815    23154110.724
  23113032.560   -12024553.51443  -9304618.30842  23113032.595    23113030.511
  21734101.054   -19359801.98343 -15069535.75142  21734100.886    21734097.245
  21613265.155   -19138385.17443 -14897895.38442  21613264.942    21613262.524
 04  5 21  1 19  0.0000000  0  5G20G16G11G25G 1
  20617096.561   -26320711.79343 -20462684.20942  20617096.156    20617092.565
  23137498.089    -3869841.58243  -2743971.76642  23137498.142    23137497.018
  23128548.296   -11943018.17543  -9241084.33842  23128548.350    23128546.276
  21746833.774   -19292891.10243 -15017397.42042  21746833.622    21746829.985
  21604013.762   -19187001.31343 -14935778.05342  21604013.575    21604011.129
 04  5 21  1 19 30.0000000  0  5G20G16G11G25G 1
  20609066.823   -26362908.35343 -20495564.63342  20609066.409    20609062.810
  23120926.948    -3956923.08243  -2811827.36142  23120927.020    23120925.825
  23144103.333   -11861276.27943  -9177389.42842  23144103.353    23144101.324
  21759620.653   -19225695.67943 -14965037.36742  21759620.508    21759616.877
  21594795.955   -19235441.03343 -14973523.25542  21594795.772    21594793.319
 04  5 21  1 20  0.0000000  0  5G20G16G11G25G 1
  20601120.187   -26404668.10443 -20528104.69342  20601119.778    20601116.175
  23104397.766    -4043784.44443  -2879511.42042  23104397.807    23104396.454
  23159695.937   -11779336.98243  -9113540.69742  23159695.935    23159693.950
  21772460.088   -19158224.13143 -14912462.15342  21772459.928    21772456.331
  21585610.571   -19283710.54543 -15011135.83242  21585610.372    21585607.894
 04  5 21  1 20 30.0000000  0  5G20G16G11G25G 1
  20593257.000   -26445989.37843 -20560303.07642  20593256.602    20593252.999
  23087911.020    -4130422.56043  -2947021.52242  23087911.009    23087909.672
  23175325.443   -11697203.39143  -9049540.55442  23175325.504    23175323.535
  21785351.616   -19090478.71843 -14859673.53742  21785351.460    21785347.886
  21576457.551   -19331809.92343 -15048615.83042  21576457.339    21576454.866
 04  5 21  1 21  0.0000000  0  5G20G16G11G25G 1
  20585478.617   -26486865.03743 -20592154.23142  20585478.222    20585474.618
  23071468.270    -4216829.32143  -3014351.35142  23071468.253    23071466.881
  23190992.481   -11614873.17643  -8985387.21642  23190992.468    23190990.483
  21798295.872   -19022456.39943 -14806669.15342  21798295.698    21798292.133
  21567337.865   -19379733.97943 -15085959.21742  21567337.656    21567335.172
 04  5 21  1 21 30.0000000  0  5G20G16G11G25G 1
  20577784.977   -26527295.33743 -20623658.35442  20577784.602    20577780.985
  23055069.682    -4303003.77743  -3081500.15842  23055069.701    23055068.317
  23206695.958   -11532351.38543  -8921084.58442  23206695.916    23206693.903
  21811292.008   -18954161.17743 -14753452.11842  21811291.846    21811288.318
  21558251.150   -19427484.72343 -15123167.55642  21558250.964    21558248.487
 04  5 21  1 22  0.0000000  0  5G20G16G11G25G 1
  20570175.377   -26567283.99643 -20654818.34242  20570175.000    20570171.380
  23038714.917    -4388948.30743  -3148469.81242  23038714.958    23038713.469
  23222434.277   -11449646.31643  -8856639.13842  23222434.223    23222432.265
  21824338.628   -18885600.76343 -14700028.44442  21824338.459    21824334.950
  21549196.441   -19475067.60643 -15160245.09942  21549196.219    21549193.707
 04  5 21  1 22 30.0000000  0  5G20G16G11G25G 1
  20562651.510   -26606822.24543 -20685627.35742  20562651.124    20562647.499
  23022405.729    -4474653.16743  -3215252.70242  23022405.805    23022404.250
  23238208.172   -11366754.09443  -8792047.87242  23238208.111    23238206.237
  21837436.574   -18816770.65743 -14646394.62042  21837436.390    21837432.888
  21540174.946   -19522475.93243 -15197186.62242  21540174.733    21540172.155
 04  5 21  1 23  0.0000000  0  5G20G16G11G25G 1
  20555213.232   -26645910.58443 -20716085.79442  20555212.869    20555209.217
  23006142.286    -4560117.49143  -3281848.16542  23006142.324    23006140.798
  23254016.688   -11283679.86943  -8727314.77442  23254016.632    23254014.844
  21850584.970   -18747675.42543 -14592554.20642  21850584.792    21850581.308
  21531186.198   -19569711.95943 -15233993.88842  21531185.996    21531183.410
 04  5 21  1 23 30.0000000  0  5G20G16G11G25G 1
  20547861.159   -26684545.97043 -20746191.28142  20547860.792    20547857.128
  22989925.401    -4645337.13843  -3348252.96942  22989925.387    22989923.926
  23269859.420   -11200425.73943  -8662441.49342  23269859.391    23269857.640
  21863783.693   -18678315.75343 -14538507.73442  21863783.513    21863780.036
  21522230.440   -19616774.61043 -15270666.05642  21522230.253    21522227.638
 04  5 21  1 24  0.0000000  0  5G20G16G11G25G 1
  20540594.909   -26722730.29743 -20775945.29142  20540594.554    20540590.874
  22973755.046    -4730312.50443  -3414467.43942  22973755.008    22973753.540
  23285735.261   -11116997.79743  -8597432.77842  23285735.277    23285733.479
  21877031.635   -18608697.44143 -14484259.72342  21877031.457    21877027.961
  21513307.075   -19663667.25743 -15307205.75742  21513306.856    21513304.215
 04  5 21  1 24 30.0000000  0  5G20G16G11G25G 1
  20533415.789   -26760456.77643 -20805342.53742  20533415.428    20533411.748
  22957632.644    -4815036.08843  -3480485.70942  22957632.569    22957631.044
  23301644.454   -11033394.53443  -8532287.45042  23301644.480    23301642.706
  21890329.274   -18538817.98843 -14429808.22642  21890329.108    21890325.610
  21504416.939   -19710385.13343 -15343609.26942  21504416.728    21504414.076
 04  5 21  1 25  0.0000000  0  5G20G16G11G25G 1
  20526323.721   -26797725.74243 -20834383.28342  20526323.359    20526319.681
  22941558.365    -4899506.77843  -3546306.92842  22941558.272    22941556.665
  23317586.222   -10949620.59443  -8467009.12642  23317586.156    23317584.445
  21903675.867   -18468681.30143 -14375156.29442  21903675.684    21903672.199
  21495559.676   -19756930.28543 -15379878.19742  21495559.474    21495556.800
 04  5 21  1 25 30.0000000  0  5G20G16G11G25G 1
  20519318.771   -26834536.95243 -20863067.33242  20519318.403    20519314.730
  22925532.459    -4983722.88043  -3611929.75942  22925532.368    22925530.789
  23333559.613   -10865680.46643  -8401601.31042  23333559.493    23333557.787
  21917070.650   -18398291.24343 -14320306.92842  21917070.471    21917066.986
  21486734.998   -19803304.17843 -15416013.67842  21486734.811    21486732.128
 04  5 21  1 26  0.0000000  0  5G20G16G11G25G 1
  20512401.800   -26870885.84343 -20891391.13742  20512401.425    20512397.743
  22909556.056    -5067679.03143  -3677350.03042  22909555.971    22909554.327
  23349564.536   -10781574.47843  -8336064.25442  23349564.420    23349562.644
  21930513.818   -18327647.08743 -14265259.56642  21930513.620    21930510.158
  21477943.493   -19849503.95543 -15452013.49042  21477943.277    21477940.589
 04  5 21  1 26 30.0000000  0  5G20G16G11G25G 1
  20505573.073   -26906771.15543 -20919353.70642  20505572.690    20505568.974
  22893629.655    -5151372.48743  -3742565.61142  22893629.566    22893627.875
  23365600.423   -10697305.75343  -8270400.38842  23365600.280    23365598.529
  21944004.810   -18256751.57743 -14210016.34142  21944004.599    21944001.141
  21469185.000   -19895530.06043 -15487877.96642  21469184.781    21469182.076
 04  5 21  1 27  0.0000000  0  5G20G16G11G25G 1
  20498832.345   -26942193.82843 -20946955.78042  20498831.985    20498828.237
  22877753.263    -5234802.97243  -3807576.27242  22877753.195    22877751.494
  23381666.122   -10612880.08943  -8204614.23742  23381666.045    23381664.226
  21957542.727   -18185609.51743 -14154581.00542  21957542.511    21957539.046
  21460459.032   -19941385.24643 -15523609.25542  21460458.822    21460456.110
 04  5 21  1 27 30.0000000  0  6G20G16G11G13G25G 1
  20492176.616   -26977169.94543 -20974209.89142  20492176.268    20492172.490
  22861924.079    -5317985.33443  -3872393.59742  22861923.981    22861922.328
  23397757.770   -10528318.21543  -8138721.94242  23397757.712    23397755.840
  24641950.914    -6026133.41953  -4661584.48252  24641951.600    24641951.073
  21971123.723   -18114241.04343 -14098969.24042  21971123.486    21971120.022
  21451762.202   -19987087.26443 -15559221.20242  21451761.992    21451759.281
 04  5 21  1 28  0.0000000  0  6G20G16G11G13G25G 1
  20485614.700   -27011653.08443 -21001079.86442  20485614.342    20485610.566
  22846151.201    -5400871.88043  -3936980.41142  22846151.087    22846149.477
  23413883.312   -10443578.53643  -8072691.09642  23413883.196    23413881.315
  24626286.287    -6108451.50143  -4725728.34842  24626287.019    24626286.278
  21984755.965   -18042603.28543 -14043147.64742  21984755.732    21984752.273
  21443103.067   -20032591.29643 -15594678.87442  21443102.850    21443100.153
 04  5 21  1 28 30.0000000  0  6G20G16G11G13G25G 1
  20479141.483   -27045670.03843 -21027586.57442  20479141.112    20479137.335
  22830429.764    -5483488.14143  -4001356.63142  22830429.635    22830427.999
  23430036.723   -10358692.10943  -8006545.91942  23430036.627    23430034.733
  24610629.287    -6190728.89443  -4789840.47742  24610629.885    24610629.243
  21998433.612   -17970726.83343 -13987140.05542  21998433.405    21998429.937
  21434476.162   -20077925.93843 -15630004.55042  21434475.929    21434473.240
 04  5 21  1 29  0.0000000  0  6G20G16G11G13G25G 1
  20472758.593   -27079212.45243 -21053723.51842  20472758.219    20472754.417
  22814761.512    -5565824.64843  -4065514.84942  22814761.421    22814759.804
  23446218.742   -10273655.37743  -7940283.61042  23446218.646    23446216.763
  24594981.203    -6272959.01043  -4853915.75042  24594981.874    24594981.205
  22012157.549   -17898607.31043 -13930943.06442  22012157.305    22012153.867
  21425882.758   -20123084.54243 -15665193.05542  21425882.518    21425879.819
 04  5 21  1 29 30.0000000  0  6G20G16G11G13G25G 1
  20466465.348   -27112283.72443 -21079493.33642  20466464.984    20466461.170
  22799146.141    -5647883.40443  -4129456.64242  22799146.067    22799144.415
  23462427.836   -10188476.32343  -7873910.40242  23462427.810    23462425.838
  24579341.210    -6355146.94943  -4917958.18042  24579341.880    24579341.158
  22025926.296   -17826252.18043 -13874562.47642  22025926.067    22025922.628
  21417321.878   -20168072.08343 -15700248.25942  21417321.643    21417318.950
 04  5 21  1 30  0.0000000  0  6G20G16G11G13G25G 1
  20460262.909   -27144877.83243 -21104891.34042  20460262.530    20460258.716
  22783585.005    -5729657.10343  -4193176.31942  22783584.936    22783583.300
  23478664.315   -10103153.49443  -7807425.16742  23478664.340    23478662.305
  24563710.157    -6437288.46043  -4981964.46542  24563710.794    24563709.872
  22039740.374   -17753658.94843 -13817996.35942  22039740.136    22039736.688
  21408794.423   -20212884.23243 -15735166.80242  21408794.160    21408791.456
 04  5 21  1 30 30.0000000  0  6G20G16G11G13G25G 1
  20454151.463   -27176993.68143 -21129916.67342  20454151.073    20454147.275
  22768078.668    -5811143.15943  -4256671.86142  22768078.552    22768076.900
  23494927.435   -10017690.70643  -7740830.86742  23494927.396    23494925.391
  24548087.871    -6519383.67543  -5045934.64242  24548088.554    24548087.528
  22053599.210   -17680830.30843 -13761246.80042  22053599.011    22053595.543
  21400300.259   -20257521.35243 -15769948.95142  21400300.001    21400297.284
 04  5 21  1 31  0.0000000  0  6G20G16G11G13G25G 1
  20448130.647   -27208633.24543 -21154570.87842  20448130.272    20448126.471
  22752626.824    -5892342.59843  -4319944.06842  22752626.732    22752625.045
  23511215.962    -9932094.20243  -7674132.38342  23511215.930    23511213.881
  24532473.623    -6601435.96643  -5109871.36842  24532474.493    24532473.554
  22067501.798   -17607771.84843 -13704318.16842  22067501.621    22067498.154
  21391838.710   -20301987.00043 -15804597.48642  21391838.457    21391835.750
 04  5 21  1 31 30.0000000  0  6G20G16G11G13G25G 1
  20442201.935   -27239788.81643 -21178847.94542  20442201.550    20442197.758
  22737231.327    -5973246.20543  -4382985.76642  22737231.241    22737229.518
  23527530.556    -9846360.85143  -7607327.26542  23527530.509    23527528.476
  24516868.784    -6683439.48143  -5173770.12142  24516869.545    24516868.698
  22081448.859   -17534479.78143 -13647207.50642  22081448.664    22081445.209
  21383410.934   -20346275.23043 -15839107.77542  21383410.672    21383407.972
 04  5 21  1 32  0.0000000  0  6G20G16G11G13G25G 1
  20436364.430   -27270465.12943 -21202751.56542  20436364.043    20436360.259
  22721891.493    -6053857.33643  -4445799.55842  22721891.444    22721889.624
  23543869.406    -9760499.96943  -7540422.76442  23543869.284    23543867.322
  24501272.047    -6765400.60443  -5237635.81842  24501272.912    24501271.973
  22095438.715   -17460962.79143 -13589921.57042  22095438.535    22095435.071
  21375015.689   -20390392.35043 -15873484.73042  21375015.459    21375012.734
 04  5 21  1 32 30.0000000  0  6G20G16G11G13G25G 1
  20430619.049   -27300657.31243 -21226277.94042  20430618.659    20430614.873
  22706608.496    -6134169.92443  -4508380.72042  22706608.433    22706606.526
  23560232.619    -9674511.24043  -7473418.65642  23560232.509    23560230.594
  24485684.011    -6847315.92743  -5301465.82942  24485684.788    24485684.008
  22109471.609   -17387219.69143 -13532459.44842  22109471.409    22109467.964
  21366653.687   -20434334.95943 -15907725.70542  21366653.442    21366650.725
 04  5 21  1 33  0.0000000  0  6G20G16G11G13G25G 1
  20424966.333   -27330362.42243 -21249424.77742  20424965.941    20424962.181
  22691383.107    -6214179.69843  -4570725.93742  22691383.054    22691381.070
  23576619.788    -9588396.36243  -7406316.23542  23576619.729    23576617.824
  24470104.985    -6929184.10843  -5365259.12442  24470105.786    24470104.742
  22123547.288   -17313251.62143 -13474822.02742  22123547.091    22123543.672
  21358325.106   -20478101.86943 -15941829.77242  21358324.866    21358322.139
 04  5 21  1 33 30.0000000  0  6G20G16G11G13G25G 1
  20419406.648   -27359578.81943 -21272190.80242  20419406.245    20419402.485
  22676215.926    -6293883.65643  -4632832.84542  22676215.831    22676213.850
  23593030.440    -9502158.07443  -7339117.67942  23593030.373    23593028.512
  24454534.868    -7011004.85543  -5429015.43442  24454535.698    24454534.666
  22137665.471   -17239060.12443 -13417010.49742  22137665.258    22137661.878
  21350030.044   -20521692.64843 -15975796.59342  21350029.805    21350027.071
 04  5 21  1 34  0.0000000  0  6G20G16G11G13G25G 1
  20413939.936   -27388306.54043 -21294576.04042  20413939.529    20413935.768
  22661107.244    -6373280.40043  -4694700.36142  22661107.136    22661105.085
  23609463.679    -9415800.93443  -7271826.48142  23609463.616    23609461.803
  24438973.563    -7092779.71543  -5492736.01942  24438974.313    24438973.246
  22151825.553   -17164648.63043 -13359027.54442  22151825.303    22151821.954
  21341768.200   -20565108.81843 -16009627.35942  21341767.955    21341765.225
 04  5 21  1 34 30.0000000  0  6G20G16G11G13G25G 1
  20408566.150   -27416545.97243 -21316580.79342  20408565.762    20408561.999
  22646057.215    -6452368.92743  -4756327.71242  22646057.081    22646055.006
  23625918.637    -9329329.66043  -7204446.38442  23625918.623    23625916.883
  24423420.641    -7174510.30443  -5556422.09542  24423421.367    24423420.339
  22166026.637   -17090021.45443 -13300876.52442  22166026.418    22166023.071
  21333539.224   -20608352.27243 -16043323.53542  21333538.999    21333536.249
 04  5 21  1 35  0.0000000  0  6G20G16G11G13G25G 1
  20403286.577   -27444290.31143 -21338199.76342  20403286.175    20403282.416
  22631067.270    -6531141.55343  -4817708.90242  22631067.096    22631064.988
  23642395.742    -9242742.16343  -7136975.69142  23642395.723    23642394.065
  24407877.157    -7256191.59043  -5620069.73742  24407877.857    24407876.840
  22180269.366   -17015175.50143 -13242555.03742  22180269.153    22180265.834
  21325344.087   -20651417.92643 -16076881.17042  21325343.864    21325341.074
 04  5 21  1 35 30.0000000  0  6G20G16G11G13G25G 1
  20398100.266   -27471544.47743 -21359436.77742  20398099.893    20398096.125
  22616136.789    -6609601.43943  -4878846.40142  22616136.629    22616134.488
  23658893.238    -9156047.75543  -7069421.70042  23658893.144    23658891.486
  24392341.859    -7337829.83843  -5683683.85642  24392342.471    24392341.609
  22194552.083   -16940119.31343 -13184069.73142  22194551.893    22194548.581
  21317181.578   -20694312.08443 -16110305.17242  21317181.358    21317178.575
 04  5 21  1 36  0.0000000  0  6G20G16G11G13G25G 1
  20393008.897   -27498299.94743 -21380285.19842  20393008.494    20393004.731
  22601267.776    -6687738.65643  -4939732.48342  22601267.555    22601265.346
  23675411.928    -9069242.07643  -7001781.00942  23675411.738    23675410.162
  24376816.101    -7419418.02743  -5747258.97042  24376816.746    24376815.823
  22208875.727   -16864848.02843 -13125416.81742  22208875.554    22208872.268
  21309053.078   -20737027.62543 -16143589.99742  21309052.843    21309050.056
 04  5 21  1 36 30.0000000  0  6G20G16G11G13G25G 1
  20388011.632   -27524560.84643 -21400748.23742  20388011.214    20388007.434
  22586459.576    -6765556.05243  -5000369.35042  22586459.332    22586457.137
  23691950.099    -8982333.86243  -6934060.42642  23691949.836    23691948.313
  24361298.806    -7500961.57643  -5810799.28342  24361299.432    24361298.653
  22223238.787   -16789369.68043 -13066602.55242  22223238.613    22223235.366
  21300957.516   -20779570.11143 -16176739.97242  21300957.300    21300954.475
 04  5 21  1 37  0.0000000  0  6G20G16G11G13G25G 1
  20383109.698   -27550320.60643 -21420820.78142  20383109.295    20383105.504
  22571713.751    -6843045.76043  -5060750.87242  22571713.494    22571711.266
  23708508.153    -8895320.90243  -6866258.20742  23708507.992    23708506.413
  24345790.952    -7582455.62743  -5874301.05842  24345791.687    24345790.641
  22237641.920   -16713680.99143 -13007624.38742  22237641.715    22237638.480
  21292895.887   -20821934.35643 -16209751.05942  21292895.636    21292892.808
 04  5 21  1 37 30.0000000  0  6G20G16G11G13G25G 1
  20378303.050   -27575579.70343 -21440503.20042  20378302.652    20378298.867
  22557030.461    -6920206.57643  -5120876.11842  22557030.247    22557027.993
  23725085.197    -8808208.29843  -6798378.35242  23725085.091    23725083.561
  24330292.195    -7663901.77843  -5937765.49442  24330292.871    24330291.917
  22252084.296   -16637785.90643 -12948485.39142  22252084.107    22252080.860
  21284867.779   -20864122.25943 -16242624.73842  21284867.538    21284864.713
 04  5 21  1 38  0.0000000  0  6G20G16G11G13G25G 1
  20373591.754   -27600337.80043 -21459795.23642  20373591.351    20373587.548
  22542410.078    -6997036.98143  -5180743.90442  22542409.856    22542407.573
  23741680.470    -8721000.00743  -6730423.93342  23741680.325    23741678.826
  24314802.390    -7745300.91143  -6001193.29242  24314803.040    24314802.080
  22266565.385   -16561687.59843 -12889188.04842  22266565.156    22266561.914
  21276873.105   -20906134.71943 -16275361.71142  21276872.835    21276869.990
 04  5 21  1 38 30.0000000  0  6G20G16G11G13G25G 1
  20368976.247   -27624592.49043 -21478694.99842  20368975.855    20368972.044
  22527853.266    -7073533.13743  -5240351.23142  22527853.036    22527850.770
  23758293.599    -8633697.64943  -6662396.22042  23758293.572    23758291.927
  24299321.769    -7826652.09243  -6064583.76742  24299322.435    24299321.314
  22281084.905   -16485387.23443 -12829733.24642  22281084.666    22281081.401
  21268912.006   -20947970.59743 -16307961.08442  21268911.721    21268908.862
 04  5 21  1 39  0.0000000  0  6G20G16G11G13G25G 1
  20364456.716   -27648342.95943 -21497201.86242  20364456.299    20364452.476
  22513360.486    -7149692.75243  -5299696.31542  22513360.239    22513358.007
  23774923.922    -8546305.09943  -6594298.23742  23774923.872    23774922.255
  24283850.063    -7907955.88743  -6127937.28142  24283850.777    24283849.556
  22295642.356   -16408887.42643 -12770123.04042  22295642.157    22295638.853
  21260984.382   -20989630.44643 -16340423.29042  21260984.093    21260981.224
 04  5 21  1 39 30.0000000  0  6G20G16G11G13G25G 1
  20360033.280   -27671588.34643 -21515315.15642  20360032.850    20360029.051
  22498932.142    -7225513.68443  -5358777.49142  22498931.901    22498929.711
  23791570.745    -8458825.80043  -6526132.65042  23791570.624    23791569.062
  24268387.403    -7989212.56943  -6191254.09442  24268388.006    24268386.959
  22310237.239   -16332190.94943 -12710359.58142  22310237.051    22310233.728
  21253090.168   -21031114.74143 -16372748.69642  21253089.870    21253087.031
 04  5 21  1 40  0.0000000  0  7G20G16G11G13G 4G25G 1
  20355707.110   -27694322.51043 -21533030.10042  20355706.707    20355702.906
  22484569.718    -7300988.31743  -5417588.83542  22484569.488    22484567.292
  23808234.479    -8371257.76343  -6457897.92342  23808234.359    23808232.897
  24252934.521    -8070417.40243  -6254530.48642  24252935.148    24252934.067
  24785852.832    -3605466.63353  -2778047.36052  24785853.292    24785851.845
  22324870.063   -16255295.07343 -12650440.75342  22324869.888    22324866.556
  21245230.258   -21072418.73343 -16404933.61242  21245229.984    21245227.127
 04  5 21  1 40 30.0000000  0  7G20G16G11G13G 4G25G 1
  20351476.623   -27716553.79543 -21550353.18442  20351476.246    20351472.443
  22470271.930    -7376123.43443  -5476135.62442  22470271.711    22470269.459
  23824912.778    -8283613.41843  -6389603.73842  23824912.589    23824911.164
  24237489.750    -8151580.09543  -6317774.07342  24237490.400    24237489.066
  24775135.863    -3661784.88243  -2821931.68542  24775136.315    24775134.786
  22339538.642   -16178211.32343 -12590375.52242  22339538.469    22339535.122
  21237402.850   -21113551.96043 -16436985.46042  21237402.568    21237399.713
 04  5 21  1 41  0.0000000  0  7G20G16G11G13G 4G25G 1
  20347344.475   -27738268.33343 -21567273.60942  20347344.090    20347340.309
  22456041.647    -7450903.94943  -5534406.10142  22456041.415    22456039.157
  23841607.385    -8195883.51843  -6321242.89842  23841607.105    23841605.787
  24222055.282    -8232688.09343  -6380975.01342  24222055.974    24222054.657
  24764506.400    -3717642.82343  -2865457.31442  24764506.774    24764505.445
  22354244.850   -16100929.81643 -12530156.19742  22354244.684    22354241.300
  21229610.325   -21154501.87843 -16468894.47342  21229610.050    21229607.195
 04  5 21  1 41 30.0000000  0  7G20G16G11G13G 4G25G 1
  20343309.680   -27759471.28043 -21583795.38742  20343309.308    20343305.531
  22441878.139    -7525333.61643  -5592403.18842  22441877.901    22441875.599
  23858316.419    -8108077.27943  -6252822.56442  23858316.184    23858314.796
  24206630.044    -8313747.90343  -6444138.42242  24206630.758    24206629.427
  24753963.461    -3773046.01243  -2908628.59442  24753963.952    24753962.507
  22368987.103   -16023458.88543 -12469789.27242  22368986.934    22368983.544
  21221851.457   -21195274.85143 -16500665.60642  21221851.195    21221848.332
 04  5 21  1 42  0.0000000  0  7G20G16G11G13G 4G25G 1
  20339372.204   -27780162.88943 -21599918.71942  20339371.802    20339368.057
  22427781.660    -7599411.05643  -5650125.81542  22427781.421    22427779.092
  23875039.154    -8020199.36743  -6184346.38242  23875038.831    23875037.487
  24191213.752    -8394760.69343  -6507265.18542  24191214.509    24191213.115
  24743507.164    -3827993.79443  -2951445.01342  24743507.613    24743506.281
  22383764.754   -15945801.92543 -12409277.39242  22383764.554    22383761.199
  21214125.997   -21235872.32743 -16532299.99042  21214125.751    21214122.883
 04  5 21  1 42 30.0000000  0  7G20G16G11G13G 4G25G 1
  20335532.804   -27800339.15143 -21615640.48542  20335532.389    20335528.642
  22413753.270    -7673130.71643  -5707569.64842  22413753.039    22413750.631
  23891775.519    -7932249.74043  -6115814.32042  23891775.166    23891773.913
  24175806.811    -8475723.68243  -6570353.11642  24175807.687    24175806.381
  24733138.417    -3882482.36643  -2993903.59742  24733138.780    24733137.428
  22398577.918   -15867958.37043 -12348620.11042  22398577.714    22398574.365
  21206434.466   -21276291.44543 -16563795.39542  21206434.234    21206431.347
 04  5 21  1 43  0.0000000  0  7G20G16G11G13G 4G25G 1
  20331791.922   -27819997.65043 -21630958.79642  20331791.519    20331787.753
  22399793.654    -7746488.84643  -5764731.77142  22399793.438    22399790.963
  23908525.121    -7844230.18443  -6047227.76242  23908524.757    23908523.646
  24160409.818    -8556635.62043  -6633401.29242  24160410.541    24160409.278
  24722857.517    -3936508.81743  -3036002.09642  24722857.861    24722856.452
  22413426.364   -15789929.36443 -12287818.31542  22413426.136    22413422.823
  21198777.122   -21316530.97643 -16595150.86042  21198776.873    21198774.007
 04  5 21  1 43 30.0000000  0  7G20G16G11G13G 4G25G 1
  20328149.959   -27839136.37343 -21645872.08942  20328149.551    20328145.778
  22385903.472    -7819481.91943  -5821609.43042  22385903.278    22385900.788
  23925287.694    -7756143.08343  -5978588.58042  23925287.265    23925286.163
  24145022.538    -8637495.88943  -6696409.18742  24145023.298    24145021.976
  24712664.957    -3990071.05743  -3077738.87742  24712665.318    24712663.881
  22428309.824   -15711716.28243 -12226873.08742  22428309.619    22428306.336
  21191154.097   -21356590.07043 -16626365.72742  21191153.886    21191150.994
 04  5 21  1 44  0.0000000  0  7G20G16G11G13G 4G25G 1
  20324606.395   -27857757.92443 -21660382.39142  20324605.973    20324602.232
  22372082.548    -7892111.16243  -5878203.59042  22372082.348    22372079.829
  23942061.754    -7667994.91243  -5909901.80642  23942061.384    23942060.288
  24129644.391    -8718307.99543  -6759379.54342  24129645.169    24129643.803
  24702560.221    -4043171.02543  -3119115.43442  24702560.614    24702559.386
  22443227.262   -15633324.77743 -12165788.83342  22443227.048    22443223.766
  21183564.701   -21396472.56443 -16657442.98542  21183564.474    21183561.582
 04  5 21  1 44 30.0000000  0  7G20G16G11G13G 4G25G 1
  20321162.076   -27875857.89343 -21674486.26542  20321161.660    20321157.923
  22358331.994    -7964370.61543  -5934509.59942  22358331.789    22358329.240
  23958847.460    -7579785.63943  -5841167.42942  23958847.088    23958846.038
  24114276.187    -8799068.70443  -6822309.86942  24114276.948    24114275.361
  24692544.454    -4095804.40843  -3160128.42542  24692544.885    24692543.639
  22458178.857   -15554753.73943 -12104564.67242  22458178.632    22458175.381
  21176009.556   -21436175.13743 -16688380.04142  21176009.324    21176006.438
 04  5 21  1 45  0.0000000  0  7G20G16G11G13G 4G25G 1
  20317816.919   -27893436.92443 -21688184.21642  20317816.481    20317812.744
  22344652.001    -8036259.36243  -5990526.74442  22344651.788    22344649.210
  23975643.948    -7491520.00243  -5772389.13042  23975643.568    23975642.559
  24098917.242    -8879779.98843  -6885201.66342  24098918.063    24098916.411
  24682617.313    -4147971.70543  -3200778.23642  24682617.698    24682616.306
  22473163.880   -15476007.03043 -12043203.63342  22473163.676    22473160.399
  21168488.356   -21475699.40943 -16719178.16442  21168488.097    21168485.232
 04  5 21  1 45 30.0000000  0  7G20G16G11G13G 4G25G 1
  20314570.981   -27910494.44343 -21701475.79442  20314570.528    20314566.804
  22331042.926    -8107775.22443  -6046253.33642  22331042.762    22331040.136
  23992450.454    -7403201.15543  -5703569.37142  23992450.202    23992449.211
  24083567.788    -8960441.99143  -6948055.08942  24083568.534    24083566.854
  24672779.021    -4199671.77443  -3241063.97642  24672779.371    24672778.155
  22488181.870   -15397087.22643 -11981707.72042  22488181.626    22488178.382
  21161000.999   -21515045.78043 -16749837.66142  21161000.721    21160997.848
 04  5 21  1 46  0.0000000  0  7G20G16G11G13G 4G25G 1
  20311425.242   -27927025.51143 -21714357.14942  20311424.772    20311421.034
  22317505.990    -8178912.05343  -6101684.56642  22317505.796    22317503.190
  24009267.351    -7314828.50243  -5634707.68442  24009267.013    24009266.084
  24068228.299    -9041051.31143  -7010867.43242  24068228.995    24068227.297
  24663030.543    -4250899.71343  -3280981.81442  24663031.019    24663029.633
  22503233.055   -15317992.76243 -11920075.69842  22503232.840    22503229.587
  21153548.150   -21554210.77343 -16780355.82742  21153547.851    21153545.002
 04  5 21  1 46 30.0000000  0  7G20G16G11G13G 4G25G 1
  20308379.763   -27943029.58443 -21726827.85742  20308379.321    20308375.557
  22304041.627    -8249667.60743  -6156818.70342  22304041.417    22304038.827
  24026093.734    -7226405.70243  -5565806.93642  24026093.406    24026092.540
  24052898.823    -9121608.18043  -7073638.93742  24052899.498    24052897.669
  24653372.241    -4301654.74543  -3320531.14542  24653372.621    24653371.163
  22518316.909   -15238726.43243 -11858309.75142  22518316.745    22518313.489
  21146129.742   -21593194.66043 -16810732.86842  21146129.460    21146126.617
 04  5 21  1 47  0.0000000  0  7G20G16G11G13G 4G25G 1
  20305434.252   -27958508.44943 -21738889.31742  20305433.784    20305430.028
  22290649.747    -8320042.19743  -6211655.98542  22290649.562    22290646.921
  24042928.528    -7137938.31443  -5496871.42242  24042928.174    24042927.437
  24037578.731    -9202115.28343  -7136371.64842  24037579.401    24037577.639
  24643803.590    -4351938.06043  -3359712.91942  24643804.023    24643802.351
  22533432.556   -15159293.12143 -11796413.70642  22533432.414    22533429.191
  21138745.283   -21632000.10543 -16840970.86742  21138745.003    21138742.173
 04  5 21  1 47 30.0000000  0  7G20G16G11G13G 4G25G 1
  20302589.139   -27973459.71643 -21750539.65742  20302588.661    20302584.915
  22277331.063    -8390031.94543  -6266193.38642  22277330.919    22277328.237
  24059771.507    -7049428.12643  -5427902.56842  24059771.215    24059770.505
  24022268.392    -9282571.35943  -7199064.59542  24022269.048    24022267.264
  24634325.241    -4401747.23143  -3398525.22742  24634325.689    24634323.899
  22548579.862   -15079693.68643 -11734388.19842  22548579.700    22548576.486
  21131395.026   -21670625.86543 -16871068.84642  21131394.719    21131391.948
 04  5 21  1 48  0.0000000  0  7G20G16G11G13G 4G25G 1
  20299844.883   -27987880.86543 -21761776.92442  20299844.422    20299840.649
  22264086.377    -8459632.80743  -6320427.76442  22264086.251    22264083.561
  24076622.437    -6960876.46443  -5358901.40142  24076622.119    24076621.489
  24006968.029    -9362975.01243  -7261716.70442  24006968.654    24006966.912
  24624937.541    -4451079.54243  -3436965.95542  24624938.011    24624936.305
  22563758.789   -14999928.20643 -11672233.32242  22563758.594    22563755.399
  21124079.258   -21709070.32643 -16901025.55442  21124078.949    21124076.189
 04  5 21  1 48 30.0000000  0  7G20G16G11G13G 4G25G 1
  20297202.277   -28001767.86543 -21772597.96942  20297201.808    20297198.037
  22250916.796    -8528839.29643  -6374354.83642  22250916.679    22250913.967
  24093481.220    -6872283.44143  -5289868.00442  24093480.827    24093480.328
  23991678.159    -9443323.16843  -7324325.55742  23991678.840    23991677.060
  24615641.462    -4499930.91043  -3475031.91942  24615641.983    24615640.140
  22578969.327   -14919996.39143 -11609948.83042  22578969.143    22578965.931
  21116798.564   -21747330.54243 -16930838.69642  21116798.252    21116795.498
 04  5 21  1 49  0.0000000  0  7G20G16G11G13G 4G25G 1
  20294659.840   -28015128.39743 -21783008.77442  20294659.395    20294655.626
  22237821.094    -8597657.32943  -6427979.21142  22237820.969    22237818.269
  24110345.687    -6783660.46543  -5220811.26842  24110345.307    24110344.860
  23976397.343    -9523624.18743  -7386897.69342  23976397.959    23976396.207
  24606435.598    -4548308.28143  -3512728.53542  24606436.112    24606434.325
  22594209.542   -14839908.61843 -11547542.81142  22594209.343    22594206.141
  21109551.300   -21785415.00643 -16960514.88242  21109550.999    21109548.240
 04  5 21  1 49 30.0000000  0  7G20G16G11G13G 4G25G 1
  20292219.083   -28027954.60943 -21793003.23442  20292218.635    20292214.860
  22224801.090    -8666077.43943  -6481293.52742  22224800.994    22224798.279
  24127216.588    -6695003.63043  -5151728.15042  24127216.201    24127215.756
  23961126.721    -9603871.21243  -7449427.73042  23961127.392    23961125.673
  24597321.220    -4596204.02843  -3550049.84542  24597321.693    24597320.087
  22609480.352   -14759660.26743 -11485011.66842  22609480.130    22609476.917
  21102338.812   -21823316.67843 -16990048.63442  21102338.506    21102335.772
 04  5 21  1 50  0.0000000  0  7G20G16G11G13G 4G25G 1
  20289880.274   -28040245.10343 -21802580.24842  20289879.844    20289876.062
  22211857.386    -8734096.84543  -6534295.60942  22211857.264    22211854.519
  24144093.479    -6606315.41243  -5082620.58342  24144093.125    24144092.657
  23945866.497    -9684063.98843  -7511915.53642  23945867.056    23945865.272
  24588298.978    -4643616.27043  -3586994.42342  24588299.295    24588297.707
  22624781.460   -14679252.62343 -11422356.39742  22624781.194    22624777.987
  21095161.217   -21861035.08643 -17019439.58742  21095160.910    21095158.195
 04  5 21  1 50 30.0000000  0  7G20G16G11G13G 4G25G 1
  20287643.749   -28051998.06043 -21811738.40242  20287643.330    20287639.551
  22198990.587    -8801712.05143  -6586982.72442  22198990.448    22198987.673
  24160975.964    -6517598.08843  -5013490.33242  24160975.661    24160975.129
  23930616.677    -9764201.68143  -7574360.37842  23930617.325    23930615.557
  24579369.162    -4690542.99543  -3623560.66642  24579369.374    24579367.857
  22640112.552   -14598687.23043 -11359578.19742  22640112.317    22640109.118
  21088018.723   -21898569.17843 -17048686.91342  21088018.403    21088015.666
 04  5 21  1 51  0.0000000  0  7G20G16G11G13G 4G25G 1
  20285508.493   -28063218.85943 -21820481.89242  20285508.094    20285504.308
  22186199.914    -8868926.98343  -6639357.93742  22186199.786    22186197.026
  24177862.200    -6428860.65443  -4944344.41542  24177861.892    24177861.417
  23915376.345    -9844290.20843  -7636766.95342  23915376.910    23915375.063
  24570530.724    -4736989.36443  -3659752.61442  24570530.959    24570529.364
  22655472.101   -14517972.41643 -11296683.57242  22655471.818    22655468.648
  21080910.079   -21935925.19343 -17077795.47842  21080909.802    21080907.032
 04  5 21  1 51 30.0000000  0  7G20G16G11G13G 4G25G 1
  20283475.969   -28073899.83543 -21828804.73642  20283475.555    20283471.768
  22173487.199    -8935732.41743  -6691414.06542  22173487.072    22173484.324
  24194752.896    -6340099.67643  -4875180.15442  24194752.680    24194752.242
  23900146.509    -9924322.89043  -7699129.97142  23900147.144    23900145.284
  24561785.118    -4782947.54043  -3695564.13742  24561785.256    24561783.827
  22670860.897   -14437103.85643 -11233669.14942  22670860.630    22670857.501
  21073836.623   -21973096.43643 -17106760.06642  21073836.350    21073833.551
 04  5 21  1 52  0.0000000  0  7G20G16G11G13G 4G25G 1
  20281545.837   -28084042.77443 -21836708.33342  20281545.418    20281541.626
  22160852.373    -9002128.53843  -6743151.23842  22160852.237    22160849.505
  24211647.111    -6251320.42243  -4806001.66142  24211646.826    24211646.467
  23884926.952   -10004302.30043  -7761451.50042  23884927.494    23884925.635
  24553132.229    -4828418.87043  -3730996.30842  24553132.427    24553130.882
  22686278.236   -14356085.51543 -11170538.01742  22686277.942    22686274.813
  21066797.883   -22010085.30443 -17135582.54242  21066797.613    21066794.775
 04  5 21  1 52 30.0000000  0  7G20G16G11G13G 4G25G 1
  20279718.271   -28093646.65643 -21844191.88142  20279717.859    20279714.081
  22148295.967    -9068112.64343  -6794567.35242  22148295.820    22148293.116
  24228544.314    -6162525.57643  -4736811.00942  24228544.092    24228543.621
  23869717.530   -10084228.08343  -7823731.24842  23869718.092    23869716.228
  24544572.098    -4873402.17143  -3766048.20642  24544572.349    24544570.839
  22701723.635   -14274919.44343 -11107291.76442  22701723.384    22701720.270
  21059793.868   -22046891.55343 -17164262.71442  21059793.609    21059790.761
 04  5 21  1 53  0.0000000  0  7G20G16G11G13G 4G25G 1
  20277994.091   -28102707.38543 -21851252.19642  20277993.675    20277989.883
  22135819.064    -9133678.98943  -6845657.95242  22135818.893    22135816.157
  24245444.636    -6073714.80143  -4667607.94842  24245444.296    24245443.917
  23854518.910   -10164096.89143  -7885966.58642  23854519.456    23854517.587
  24536105.752    -4917893.01343  -3800716.36242  24536105.974    24536104.446
  22717197.360   -14193604.53243 -11043929.53342  22717197.145    22717194.019
  21052825.230   -22083511.89443 -17192798.02742  21052824.990    21052822.128
 04  5 21  1 53 30.0000000  0  7G20G16G11G13G 4G25G 1
  20276372.502   -28111229.05243 -21857892.46742  20276372.060    20276368.259
  22123421.180    -9198830.18143  -6896425.05542  22123421.003    22123418.248
  24262346.418    -5984896.10843  -4598398.71242  24262346.126    24262345.650
  23839330.205   -10243913.62843  -7948161.35942  23839330.755    23839328.849
  24527732.306    -4961895.44243  -3835003.95242  24527732.503    24527730.967
  22732698.119   -14112147.54643 -10980456.59642  22732697.930    22732694.796
  21045891.071   -22119951.02843 -17221192.14042  21045890.824    21045887.984
 04  5 21  1 54  0.0000000  0  7G20G16G11G13G 4G25G 1
  20274854.482   -28119206.29443 -21864108.50342  20274854.050    20274850.259
  22111103.577    -9263559.45343  -6946863.37842  22111103.364    22111100.621
  24279250.008    -5896067.73043  -4529181.92942  24279249.689    24279249.251
  23824152.201   -10323674.06543  -8010312.24742  23824152.759    23824150.858
  24519452.985    -5005403.63043  -3868906.42342  24519453.194    24519451.519
  22748226.336   -14030546.33343 -10916871.27242  22748226.112    22748223.036
  21038992.242   -22156204.53843 -17249441.60842  21038991.968    21038989.142
 04  5 21  1 54 30.0000000  0  7G20G16G11G13G 4G25G 1
  20273439.953   -28126639.67543 -21869900.75442  20273439.506    20273435.739
  22098866.472    -9327865.57043  -6996971.96842  22098866.260    22098863.514
  24296154.595    -5807234.09643  -4459961.05242  24296154.287    24296153.908
  23808984.708   -10403379.36743  -8072420.18942  23808985.353    23808983.271
  24511267.509    -5048418.14443  -3902424.21242  24511267.790    24511266.142
  22763781.389   -13948804.03843 -10853176.02342  22763781.175    22763778.120
  21032128.515   -22192273.55143 -17277547.31342  21032128.239    21032125.413
 04  5 21  1 55  0.0000000  0  7G20G16G11G13G 4G25G 1
  20272128.535   -28133531.17643 -21875270.76242  20272128.076    20272124.337
  22086709.904    -9391748.63743  -7046750.92442  22086709.652    22086706.899
  24313059.172    -5718400.46343  -4390740.17642  24313058.994    24313058.531
  23793827.313   -10483031.62943  -8134486.77442  23793827.960    23793825.950
  24503175.977    -5090940.47543  -3935558.48442  24503176.132    24503174.371
  22779362.380   -13866925.51943 -10789374.62142  22779362.164    22779359.116
  21025299.510   -22228160.27643 -17305510.97642  21025299.221    21025296.372
 04  5 21  1 55 30.0000000  0  7G20G16G11G13G 4G25G 1
  20270922.112   -28139870.96543 -21880210.86442  20270921.651    20270917.941
  22074635.913    -9455197.47443  -7096191.51642  22074635.682    22074632.906
  24329964.860    -5629560.93743  -4321514.70842  24329964.583    24329964.344
  23778681.649   -10562622.07243  -8196505.20942  23778682.302    23778680.276
  24495179.750    -5132960.55143  -3968301.36042  24495180.001    24495178.206
  22794970.596   -13784904.01543 -10725461.79842  22794970.347    22794967.351
  21018506.818   -22263855.99943 -17333325.80342  21018506.540    21018503.688
 04  5 21  1 56  0.0000000  0  7G20G16G11G13G 4G25G 1
  20269819.097   -28145667.32343 -21884727.51442  20269818.646    20269814.939
  22062643.275    -9518218.83343  -7145299.00542  22062643.076    22062640.319
  24346869.392    -5540727.59443  -4252294.05942  24346869.110    24346868.938
  23763546.124   -10642159.82943  -8258482.59042  23763546.705    23763544.645
  24487277.535    -5174486.91143  -4000659.55542  24487277.728    24487276.015
  22810603.982   -13702750.25143 -10661445.91842  22810603.716    22810600.744
  21011748.814   -22299369.55543 -17360998.68342  21011748.525    21011745.668
 04  5 21  1 56 30.0000000  0  7G20G16G11G13G 4G25G 1
  20268820.271   -28150916.27743 -21888817.61942  20268819.817    20268816.123
  22050733.138    -9580806.85043  -7194068.83142  22050732.939    22050730.169
  24363772.886    -5451899.86843  -4183077.79442  24363772.518    24363772.379
  23748421.176   -10721641.28743  -8320416.09842  23748421.823    23748419.767
  24479470.121    -5215514.57243  -4032629.14142  24479470.338    24479468.733
  22826262.779   -13620462.75643 -10597325.83542  22826262.535    22826259.563
  21005026.125   -22334697.47243 -17388526.91542  21005025.839    21005022.959
 04  5 21  1 57  0.0000000  0  7G20G16G11G13G 4G25G 1
  20267925.871   -28155616.29843 -21892479.97742  20267925.440    20267921.744
  22038906.016    -9642958.40143  -7242498.55042  22038905.840    22038903.072
  24380674.883    -5363079.67843  -4113867.39142  24380674.598    24380674.389
  23733307.170   -10801065.64143  -8382305.10742  23733307.737    23733305.735
  24471758.011    -5256042.39343  -4064209.24142  24471758.211    24471756.512
  22841946.791   -13538042.66843 -10533102.42542  22841946.551    22841943.627
  20998338.923   -22369838.88543 -17415909.81342  20998338.636    20998335.747
 04  5 21  1 57 30.0000000  0  7G20G16G11G13G 4G25G 1
  20267136.164   -28159766.34443 -21895713.78842  20267135.731    20267132.018
  22027162.500    -9704670.77743  -7290586.06842  22027162.321    22027159.536
  24397574.987    -5274269.59643  -4044664.86842  24397574.697    24397574.477
  23718204.162   -10880432.13443  -8444149.03842  23718204.745    23718202.637
  24464141.256    -5296068.80043  -4095398.62542  24464141.471    24464139.783
  22857655.751   -13455491.58743 -10468776.94442  22857655.500    22857652.644
  20991687.383   -22404792.86243 -17443146.65542  20991687.107    20991684.200
 04  5 21  1 58  0.0000000  0  7G20G16G11G13G 4G25G 1
  20266451.212   -28163365.86443 -21898518.61242  20266450.763    20266447.058
  22015503.025    -9765941.78843  -7338329.66242  22015502.804    22015500.023
  24414472.612    -5185472.53543  -3975472.47942  24414472.389    24414472.142
  23703112.091   -10959740.99543  -8505948.05942  23703112.750    23703110.537
  24456620.091    -5335592.88943  -4126196.59542  24456620.284    24456618.493
  22873389.190   -13372811.81743 -10404351.19242  22873388.966    22873386.123
  20985071.466   -22439559.60543 -17470237.60142  20985071.188    20985068.295
 04  5 21  1 58 30.0000000  0  7G20G16G11G13G 4G25G 1
  20265870.983   -28166414.98243 -21900894.55242  20265870.548    20265866.857
  22003927.753    -9826770.22543  -7385728.39342  22003927.527    22003924.683
  24431367.031    -5096692.33143  -3906293.23542  24431366.809    24431366.619
  23688030.831   -11038992.89543  -8567702.69142  23688031.517    23688029.267
  24449194.416    -5374614.91943  -4156603.34142  24449194.596    24449192.791
  22889146.599   -13290006.11743 -10339827.31242  22889146.347    22889143.573
  20978490.995   -22474139.99043 -17497183.33342  20978490.737    20978487.840
 04  5 21  1 59  0.0000000  0  7G20G16G11G13G 4G25G 1
  20265395.605   -28168913.20643 -21902841.22842  20265395.155    20265391.468
  21992437.137    -9887153.52943  -7432780.26442  21992436.935    21992434.070
  24448257.781    -5007931.72843  -3837129.27442  24448257.457    24448257.288
  23672960.499   -11118187.67943  -8629412.82342  23672961.143    23672958.904
  24441864.472    -5413133.64743  -4186617.90242  24441864.679    24441862.915
  22904927.660   -13207076.21743 -10275206.64942  22904927.394    22904924.638
  20971946.039   -22508533.74043 -17523983.63642  20971945.785    20971942.926
 04  5 21  1 59 30.0000000  0  7G20G16G11G13G 4G25G 1
  20265025.313   -28170859.08143 -21904357.50242  20265024.881    20265021.179
  21981031.772    -9947088.94843  -7479483.12042  21981031.556    21981028.684
  24465144.268    -4919192.86543  -3767982.23242  24465143.982    24465143.902
  23657901.094   -11197324.68543  -8691077.92442  23657901.713    23657899.507
  24434630.655    -5451147.70543  -4216239.22742  24434630.894    24434629.103
  22920732.106   -13124023.33643 -10210490.16142  22920731.873    22920729.091
  20965436.768   -22542740.00443 -17550637.84642  20965436.513    20965433.683
 04  5 21  2  0  0.0000000  0  7G20G16G11G13G 4G25G 1
  20264760.507   -28172250.75343 -21905441.93242  20264760.064    20264756.351
  21969712.394   -10006572.55543  -7525833.91942  21969712.167    21969709.288
  24482026.348    -4830477.47343  -3698853.50842  24482026.043    24482026.116
  23642853.133   -11276402.10743  -8752696.60542  23642853.766    23642851.480
  24427493.275    -5488654.77743  -4245465.49642  24427493.526    24427491.792
  22936559.788   -13040848.44443 -10145678.59942  22936559.550    22936556.785
  20958963.523   -22576757.07843 -17577144.63742  20958963.231    20958960.439
 04  5 21  2  0 30.0000000  0  7G20G16G11G13G 4G25G 1
  20264601.788   -28173084.91143 -21906091.93242  20264601.315    20264597.619
  21958479.842   -10065599.60943  -7571828.96442  21958479.653    21958476.730
  24498903.998    -4741785.29843  -3629742.87742  24498903.795    24498903.782
  23627816.949   -11355417.29743  -8814266.77142  23627817.607    23627815.316
  24420452.892    -5525651.71643  -4274294.25142  24420453.179    24420451.467
  22952410.791   -12957550.99643 -10080771.53542  22952410.572    22952407.821
  20952526.811   -22610582.18943 -17603501.85242  20952526.529    20952523.708
 04  5 21  2  1  0.0000000  0  7G20G16G11G13G 4G25G 1
  20264548.378   -28173365.50943 -21906310.58742  20264547.907    20264544.234
  21947333.805   -10124172.22543  -7617469.90542  21947333.596    21947330.666
  24515775.997    -4653123.48243  -3560655.89342  24515775.771    24515775.672
  23612791.856   -11434374.47043  -8875791.76942  23612792.486    23612790.174
  24413509.039    -5562141.97943  -4302728.20542  24413509.324    24413507.447
  22968283.971   -12874136.96343 -10015773.63242  22968283.788    22968281.022
  20946125.876   -22644219.34643 -17629712.60942  20946125.584    20946122.747
 04  5 21  2  1 30.0000000  0  7G20G16G11G13G 4G25G 1
  20264600.482   -28173091.76343 -21906097.28742  20264600.005    20264596.337
  21936274.717   -10182288.00343  -7662754.87442  21936274.461    21936271.533
  24532641.583    -4564494.72443  -3491594.66442  24532641.367    24532641.356
  23597777.781   -11513273.31243  -8937271.27342  23597778.395    23597776.123
  24406661.769    -5598124.61843  -4330766.61642  24406662.064    24406660.181
  22984179.030   -12790608.04043  -9950686.19442  22984178.821    22984176.095
  20939760.720   -22677668.34643 -17655776.75142  20939760.443    20939757.587
